| time (UTC) | temp F | wind direction | speed MPH | gust MPH | rain 1hr in | rain 24hr in | rain mn in | humidity % | barometer mb |
| 20260502205605 | 75 | 222 | 7.0 | 14.0 | 0.00 | 0.00 | 0.00 | 10 | 1009.3 |
| 20260502205504 | 75 | 222 | 7.0 | 14.0 | 0.00 | 0.00 | 0.00 | 10 | 1009.3 |
| 20260502205405 | 75 | 224 | 4.0 | 14.0 | 0.00 | 0.00 | 0.00 | 10 | 1009.4 |
| 20260502205204 | 75 | 223 | 5.0 | 14.0 | 0.00 | 0.00 | 0.00 | 10 | 1009.4 |
| 20260502205004 | 75 | 225 | 5.0 | 14.0 | 0.00 | 0.00 | 0.00 | 10 | 1009.3 |
| 20260502204905 | 75 | 225 | 5.0 | 14.0 | 0.00 | 0.00 | 0.00 | 10 | 1009.4 |
| 20260502204805 | 75 | 225 | 8.0 | 14.0 | 0.00 | 0.00 | 0.00 | 10 | 1009.3 |
| 20260502204704 | 75 | 227 | 9.0 | 14.0 | 0.00 | 0.00 | 0.00 | 10 | 1009.2 |
| 20260502204605 | 75 | 233 | 6.0 | 12.0 | 0.00 | 0.00 | 0.00 | 10 | 1009.3 |
| 20260502204504 | 75 | 229 | 6.0 | 12.0 | 0.00 | 0.00 | 0.00 | 10 | 1009.3 |
| 20260502204405 | 75 | 229 | 7.0 | 12.0 | 0.00 | 0.00 | 0.00 | 10 | 1009.4 |
| 20260502204105 | 76 | 230 | 6.0 | 11.0 | 0.00 | 0.00 | 0.00 | 10 | 1009.4 |
| 20260502203904 | 75 | 232 | 2.0 | 11.0 | 0.00 | 0.00 | 0.00 | 10 | 1009.4 |
| 20260502203805 | 75 | 237 | 2.0 | 12.0 | 0.00 | 0.00 | 0.00 | 10 | 1009.4 |
| 20260502203604 | 76 | 232 | 7.0 | 14.0 | 0.00 | 0.00 | 0.00 | 10 | 1009.5 |
| 20260502203404 | 75 | 236 | 7.0 | 14.0 | 0.00 | 0.00 | 0.00 | 10 | 1009.3 |
| 20260502203304 | 75 | 242 | 7.0 | 15.0 | 0.00 | 0.00 | 0.00 | 10 | 1009.4 |
| 20260502203205 | 75 | 244 | 7.0 | 15.0 | 0.00 | 0.00 | 0.00 | 10 | 1009.4 |
| 20260502203104 | 75 | 244 | 7.0 | 15.0 | 0.00 | 0.00 | 0.00 | 10 | 1009.5 |
| 20260502202905 | 75 | 245 | 7.0 | 15.0 | 0.00 | 0.00 | 0.00 | 10 | 1009.4 |
| 20260502202805 | 75 | 240 | 9.0 | 15.0 | 0.00 | 0.00 | 0.00 | 10 | 1009.4 |
| 20260502202604 | 75 | 239 | 7.0 | 15.0 | 0.00 | 0.00 | 0.00 | 10 | 1009.5 |
| 20260502202504 | 75 | 237 | 8.0 | 15.0 | 0.00 | 0.00 | 0.00 | 10 | 1009.5 |
| 20260502202305 | 75 | 232 | 9.0 | 15.0 | 0.00 | 0.00 | 0.00 | 10 | 1009.4 |
| 20260502202205 | 74 | 224 | 11.0 | 15.0 | 0.00 | 0.00 | 0.00 | 10 | 1009.5 |
| 20260502202104 | 74 | 224 | 8.0 | 15.0 | 0.00 | 0.00 | 0.00 | 10 | 1009.5 |
| 20260502202004 | 75 | 226 | 8.0 | 15.0 | 0.00 | 0.00 | 0.00 | 10 | 1009.5 |
| 20260502201904 | 75 | 227 | 8.0 | 15.0 | 0.00 | 0.00 | 0.00 | 10 | 1009.6 |
| 20260502201804 | 75 | 227 | 6.0 | 15.0 | 0.00 | 0.00 | 0.00 | 10 | 1009.6 |
| 20260502201705 | 75 | 235 | 8.0 | 17.0 | 0.00 | 0.00 | 0.00 | 10 | 1009.5 |
| 20260502201604 | 75 | 243 | 8.0 | 17.0 | 0.00 | 0.00 | 0.00 | 10 | 1009.6 |
| 20260502201405 | 75 | 244 | 9.0 | 17.0 | 0.00 | 0.00 | 0.00 | 10 | 1009.6 |
| 20260502201305 | 75 | 245 | 8.0 | 17.0 | 0.00 | 0.00 | 0.00 | 10 | 1009.6 |
| 20260502201205 | 75 | 247 | 7.0 | 17.0 | 0.00 | 0.00 | 0.00 | 10 | 1009.7 |
| 20260502201104 | 75 | 245 | 8.0 | 17.0 | 0.00 | 0.00 | 0.00 | 10 | 1009.6 |
| 20260502201005 | 75 | 238 | 9.0 | 17.0 | 0.00 | 0.00 | 0.00 | 10 | 1009.6 |
| 20260502200904 | 75 | 235 | 9.0 | 17.0 | 0.00 | 0.00 | 0.00 | 10 | 1009.5 |
| 20260502200805 | 75 | 232 | 10.0 | 17.0 | 0.00 | 0.00 | 0.00 | 10 | 1009.7 |
| 20260502200704 | 75 | 224 | 11.0 | 17.0 | 0.00 | 0.00 | 0.00 | 10 | 1009.7 |
| 20260502200605 | 75 | 217 | 12.0 | 17.0 | 0.00 | 0.00 | 0.00 | 10 | 1009.6 |
| 20260502200504 | 75 | 218 | 9.0 | 17.0 | 0.00 | 0.00 | 0.00 | 10 | 1009.7 |
| 20260502200205 | 75 | 221 | 8.0 | 17.0 | 0.00 | 0.00 | 0.00 | 10 | 1009.6 |
| 20260502200104 | 75 | 224 | 10.0 | 17.0 | 0.00 | 0.00 | 0.00 | 10 | 1009.7 |
| 20260502200004 | 74 | 235 | 6.0 | 17.0 | 0.00 | 0.00 | 0.00 | 10 | 1009.7 |
| 20260502195904 | 74 | 241 | 9.0 | 17.0 | 0.00 | 0.00 | 0.00 | 10 | 1009.6 |
| 20260502195804 | 74 | 250 | 4.0 | 12.0 | 0.00 | 0.00 | 0.00 | 10 | 1009.7 |
| 20260502195605 | 75 | 243 | 4.0 | 15.0 | 0.00 | 0.00 | 0.00 | 10 | 1009.8 |
| 20260502195504 | 74 | 231 | 3.0 | 15.0 | 0.00 | 0.00 | 0.00 | 10 | 1009.7 |
| 20260502195405 | 74 | 226 | 6.0 | 15.0 | 0.00 | 0.00 | 0.00 | 10 | 1009.8 |
| 20260502195305 | 74 | 220 | 7.0 | 15.0 | 0.00 | 0.00 | 0.00 | 10 | 1009.9 |
| 20260502195104 | 74 | 220 | 4.0 | 15.0 | 0.00 | 0.00 | 0.00 | 11 | 1009.9 |
| 20260502195005 | 74 | 218 | 4.0 | 17.0 | 0.00 | 0.00 | 0.00 | 11 | 1009.8 |
| 20260502194904 | 74 | 213 | 4.0 | 17.0 | 0.00 | 0.00 | 0.00 | 11 | 1009.8 |
| 20260502194705 | 74 | 212 | 9.0 | 17.0 | 0.00 | 0.00 | 0.00 | 10 | 1009.9 |
| 20260502194604 | 74 | 215 | 5.0 | 17.0 | 0.00 | 0.00 | 0.00 | 10 | 1009.9 |
| 20260502194304 | 74 | 227 | 6.0 | 17.0 | 0.00 | 0.00 | 0.00 | 10 | 1009.9 |
| 20260502194205 | 74 | 228 | 6.0 | 17.0 | 0.00 | 0.00 | 0.00 | 10 | 1010.0 |
| 20260502194005 | 74 | 222 | 8.0 | 14.0 | 0.00 | 0.00 | 0.00 | 10 | 1009.9 |
| 20260502193804 | 74 | 225 | 6.0 | 14.0 | 0.00 | 0.00 | 0.00 | 10 | 1009.9 |
| 20260502193705 | 74 | 223 | 9.0 | 14.0 | 0.00 | 0.00 | 0.00 | 10 | 1010.0 |
| 20260502193604 | 74 | 223 | 8.0 | 12.0 | 0.00 | 0.00 | 0.00 | 10 | 1009.9 |
| 20260502193504 | 74 | 223 | 7.0 | 12.0 | 0.00 | 0.00 | 0.00 | 10 | 1010.0 |
| 20260502193404 | 74 | 222 | 6.0 | 12.0 | 0.00 | 0.00 | 0.00 | 10 | 1010.1 |
| 20260502193304 | 74 | 222 | 8.0 | 12.0 | 0.00 | 0.00 | 0.00 | 10 | 1010.1 |
| 20260502193205 | 74 | 223 | 4.0 | 12.0 | 0.00 | 0.00 | 0.00 | 10 | 1010.0 |
| 20260502193104 | 74 | 224 | 3.0 | 12.0 | 0.00 | 0.00 | 0.00 | 10 | 1010.0 |
| 20260502193004 | 74 | 228 | 9.0 | 15.0 | 0.00 | 0.00 | 0.00 | 10 | 1010.0 |
| 20260502192904 | 74 | 230 | 5.0 | 15.0 | 0.00 | 0.00 | 0.00 | 10 | 1010.0 |
| 20260502192505 | 74 | 235 | 7.0 | 15.0 | 0.00 | 0.00 | 0.00 | 10 | 1009.9 |
| 20260502192405 | 74 | 240 | 5.0 | 15.0 | 0.00 | 0.00 | 0.00 | 10 | 1010.0 |
| 20260502192305 | 74 | 244 | 6.0 | 15.0 | 0.00 | 0.00 | 0.00 | 10 | 1010.0 |
| 20260502192205 | 74 | 245 | 7.0 | 15.0 | 0.00 | 0.00 | 0.00 | 10 | 1010.0 |
| 20260502192104 | 74 | 251 | 8.0 | 15.0 | 0.00 | 0.00 | 0.00 | 10 | 1009.9 |
| 20260502192005 | 74 | 251 | 8.0 | 15.0 | 0.00 | 0.00 | 0.00 | 10 | 1010.0 |
| 20260502191804 | 74 | 248 | 6.0 | 15.0 | 0.00 | 0.00 | 0.00 | 10 | 1009.9 |
| 20260502191706 | 74 | 249 | 6.0 | 15.0 | 0.00 | 0.00 | 0.00 | 10 | 1010.0 |
| 20260502191604 | 74 | 251 | 8.0 | 11.0 | 0.00 | 0.00 | 0.00 | 11 | 1010.0 |
| 20260502191505 | 74 | 243 | 8.0 | 11.0 | 0.00 | 0.00 | 0.00 | 10 | 1010.0 |
| 20260502191404 | 74 | 235 | 5.0 | 11.0 | 0.00 | 0.00 | 0.00 | 11 | 1010.0 |
| 20260502191304 | 74 | 230 | 5.0 | 11.0 | 0.00 | 0.00 | 0.00 | 10 | 1010.0 |
| 20260502191204 | 74 | 228 | 7.0 | 11.0 | 0.00 | 0.00 | 0.00 | 11 | 1010.0 |
| 20260502191104 | 74 | 222 | 7.0 | 11.0 | 0.00 | 0.00 | 0.00 | 11 | 1010.1 |
| 20260502191005 | 74 | 222 | 4.0 | 11.0 | 0.00 | 0.00 | 0.00 | 10 | 1010.1 |
| 20260502190904 | 74 | 221 | 5.0 | 11.0 | 0.00 | 0.00 | 0.00 | 10 | 1010.1 |
| 20260502190805 | 74 | 229 | 6.0 | 11.0 | 0.00 | 0.00 | 0.00 | 11 | 1010.1 |
| 20260502190705 | 74 | 229 | 1.0 | 11.0 | 0.00 | 0.00 | 0.00 | 10 | 1010.2 |
| 20260502190505 | 74 | 233 | 1.0 | 11.0 | 0.00 | 0.00 | 0.00 | 10 | 1010.3 |
| 20260502190404 | 74 | 232 | 1.0 | 11.0 | 0.00 | 0.00 | 0.00 | 10 | 1010.1 |
| 20260502190304 | 74 | 244 | 1.0 | 13.0 | 0.00 | 0.00 | 0.00 | 10 | 1010.1 |
| 20260502190205 | 74 | 248 | 1.0 | 13.0 | 0.00 | 0.00 | 0.00 | 10 | 1010.1 |
| 20260502190104 | 74 | 246 | 1.0 | 13.0 | 0.00 | 0.00 | 0.00 | 10 | 1010.2 |
| 20260502190005 | 74 | 243 | 4.0 | 13.0 | 0.00 | 0.00 | 0.00 | 10 | 1010.3 |
| 20260502185904 | 74 | 246 | 4.0 | 13.0 | 0.00 | 0.00 | 0.00 | 10 | 1010.3 |
| 20260502185804 | 74 | 237 | 5.0 | 13.0 | 0.00 | 0.00 | 0.00 | 10 | 1010.2 |
| 20260502185704 | 74 | 237 | 7.0 | 13.0 | 0.00 | 0.00 | 0.00 | 10 | 1010.2 |
| 20260502185604 | 74 | 232 | 2.0 | 13.0 | 0.00 | 0.00 | 0.00 | 11 | 1010.2 |
| 20260502185505 | 74 | 230 | 4.0 | 13.0 | 0.00 | 0.00 | 0.00 | 12 | 1010.2 |
| 20260502185404 | 74 | 231 | 4.0 | 13.0 | 0.00 | 0.00 | 0.00 | 11 | 1010.2 |
| 20260502185305 | 74 | 229 | 9.0 | 13.0 | 0.00 | 0.00 | 0.00 | 11 | 1010.1 |
| 20260502185204 | 74 | 229 | 5.0 | 8.0 | 0.00 | 0.00 | 0.00 | 11 | 1010.3 |
| 20260502185105 | 74 | 228 | 5.0 | 8.0 | 0.00 | 0.00 | 0.00 | 11 | 1010.3 |
| 20260502185004 | 74 | 225 | 5.0 | 8.0 | 0.00 | 0.00 | 0.00 | 11 | 1010.3 |
| 20260502184905 | 74 | 221 | 5.0 | 8.0 | 0.00 | 0.00 | 0.00 | 11 | 1010.3 |
| 20260502184804 | 74 | 220 | 5.0 | 8.0 | 0.00 | 0.00 | 0.00 | 11 | 1010.4 |
| 20260502184604 | 74 | 203 | 5.0 | 8.0 | 0.00 | 0.00 | 0.00 | 11 | 1010.4 |
| 20260502184504 | 74 | 184 | 5.0 | 8.0 | 0.00 | 0.00 | 0.00 | 11 | 1010.4 |
| 20260502184406 | 74 | 164 | 2.0 | 8.0 | 0.00 | 0.00 | 0.00 | 11 | 1010.4 |
| 20260502184304 | 74 | 149 | 1.0 | 8.0 | 0.00 | 0.00 | 0.00 | 11 | 1010.4 |
| 20260502184205 | 74 | 135 | 2.0 | 8.0 | 0.00 | 0.00 | 0.00 | 12 | 1010.4 |
| 20260502184104 | 74 | 130 | 1.0 | 8.0 | 0.00 | 0.00 | 0.00 | 12 | 1010.4 |
| 20260502183605 | 74 | 110 | 2.0 | 8.0 | 0.00 | 0.00 | 0.00 | 11 | 1010.6 |
| 20260502183504 | 74 | 115 | 2.0 | 8.0 | 0.00 | 0.00 | 0.00 | 11 | 1010.5 |
| 20260502183404 | 73 | 121 | 1.0 | 8.0 | 0.00 | 0.00 | 0.00 | 11 | 1010.5 |
| 20260502183306 | 73 | 134 | 3.0 | 8.0 | 0.00 | 0.00 | 0.00 | 11 | 1010.6 |
| 20260502183105 | 73 | 148 | 4.0 | 8.0 | 0.00 | 0.00 | 0.00 | 11 | 1010.6 |
| 20260502182904 | 73 | 190 | 4.0 | 8.0 | 0.00 | 0.00 | 0.00 | 11 | 1010.5 |
| 20260502182704 | 73 | 221 | 1.0 | 4.0 | 0.00 | 0.00 | 0.00 | 11 | 1010.6 |
| 20260502182604 | 73 | 214 | 2.0 | 4.0 | 0.00 | 0.00 | 0.00 | 11 | 1010.6 |
| 20260502182504 | 73 | 189 | 2.0 | 4.0 | 0.00 | 0.00 | 0.00 | 11 | 1010.6 |
| 20260502182404 | 73 | 151 | 2.0 | 8.0 | 0.00 | 0.00 | 0.00 | 11 | 1010.6 |
| 20260502182204 | 73 | 83 | 1.0 | 9.0 | 0.00 | 0.00 | 0.00 | 11 | 1010.6 |
| 20260502182105 | 73 | 86 | 2.0 | 9.0 | 0.00 | 0.00 | 0.00 | 11 | 1010.7 |
| 20260502182005 | 73 | 85 | 1.0 | 9.0 | 0.00 | 0.00 | 0.00 | 11 | 1010.8 |
| 20260502181905 | 72 | 78 | 1.0 | 9.0 | 0.00 | 0.00 | 0.00 | 11 | 1010.8 |
| 20260502181804 | 72 | 0 | 0.0 | 9.0 | 0.00 | 0.00 | 0.00 | 11 | 1010.6 |
| 20260502181705 | 72 | 64 | 2.0 | 9.0 | 0.00 | 0.00 | 0.00 | 11 | 1010.7 |
| 20260502181604 | 72 | 56 | 3.0 | 9.0 | 0.00 | 0.00 | 0.00 | 11 | 1010.8 |
| 20260502181405 | 72 | 45 | 4.0 | 9.0 | 0.00 | 0.00 | 0.00 | 10 | 1010.7 |
| 20260502181304 | 72 | 42 | 6.0 | 9.0 | 0.00 | 0.00 | 0.00 | 10 | 1010.8 |
| 20260502181204 | 72 | 34 | 2.0 | 9.0 | 0.00 | 0.00 | 0.00 | 11 | 1010.9 |
| 20260502181104 | 72 | 9 | 3.0 | 9.0 | 0.00 | 0.00 | 0.00 | 10 | 1010.8 |
| 20260502180904 | 72 | 325 | 2.0 | 8.0 | 0.00 | 0.00 | 0.00 | 11 | 1010.9 |
| 20260502180804 | 72 | 334 | 3.0 | 8.0 | 0.00 | 0.00 | 0.00 | 11 | 1010.8 |
| 20260502180704 | 72 | 332 | 4.0 | 8.0 | 0.00 | 0.00 | 0.00 | 11 | 1010.8 |
| 20260502180604 | 72 | 323 | 2.0 | 8.0 | 0.00 | 0.00 | 0.00 | 11 | 1010.8 |
| 20260502180504 | 72 | 323 | 2.0 | 8.0 | 0.00 | 0.00 | 0.00 | 11 | 1010.8 |
| 20260502180405 | 72 | 322 | 2.0 | 8.0 | 0.00 | 0.00 | 0.00 | 11 | 1010.9 |
| 20260502180304 | 72 | 317 | 1.0 | 8.0 | 0.00 | 0.00 | 0.00 | 12 | 1010.9 |
| 20260502180205 | 71 | 320 | 3.0 | 8.0 | 0.00 | 0.00 | 0.00 | 11 | 1010.9 |
| 20260502180104 | 71 | 325 | 3.0 | 8.0 | 0.00 | 0.00 | 0.00 | 11 | 1010.8 |
| 20260502170504 | 66 | 312 | 2.0 | 6.0 | 0.00 | 0.00 | 0.00 | 14 | 1011.2 |
| 20260502170405 | 65 | 309 | 2.0 | 6.0 | 0.00 | 0.00 | 0.00 | 13 | 1011.2 |
| 20260502170304 | 65 | 312 | 1.0 | 6.0 | 0.00 | 0.00 | 0.00 | 14 | 1011.2 |
| 20260502170204 | 65 | 305 | 1.0 | 6.0 | 0.00 | 0.00 | 0.00 | 14 | 1011.2 |
| 20260502164304 | 64 | 320 | 2.0 | 6.0 | 0.00 | 0.00 | 0.00 | 15 | 1011.5 |
| 20260502164205 | 63 | 320 | 4.0 | 6.0 | 0.00 | 0.00 | 0.00 | 14 | 1011.5 |
| 20260502164004 | 63 | 326 | 3.0 | 6.0 | 0.00 | 0.00 | 0.00 | 15 | 1011.4 |
| 20260502163904 | 63 | 328 | 2.0 | 6.0 | 0.00 | 0.00 | 0.00 | 14 | 1011.4 |
| 20260502163804 | 63 | 331 | 3.0 | 6.0 | 0.00 | 0.00 | 0.00 | 14 | 1011.4 |
| 20260502163704 | 63 | 331 | 3.0 | 6.0 | 0.00 | 0.00 | 0.00 | 14 | 1011.5 |
| 20260502163504 | 63 | 344 | 2.0 | 5.0 | 0.00 | 0.00 | 0.00 | 15 | 1011.4 |
| 20260502163404 | 63 | 353 | 2.0 | 5.0 | 0.00 | 0.00 | 0.00 | 15 | 1011.4 |
| 20260502163305 | 63 | 356 | 2.0 | 5.0 | 0.00 | 0.00 | 0.00 | 15 | 1011.4 |
| 20260502163204 | 63 | 352 | 2.0 | 6.0 | 0.00 | 0.00 | 0.00 | 16 | 1011.4 |
| 20260502163104 | 63 | 352 | 2.0 | 6.0 | 0.00 | 0.00 | 0.00 | 16 | 1011.4 |
| 20260502162904 | 63 | 350 | 1.0 | 6.0 | 0.00 | 0.00 | 0.00 | 17 | 1011.4 |
| 20260502162704 | 62 | 11 | 2.0 | 6.0 | 0.00 | 0.00 | 0.00 | 17 | 1011.5 |
| 20260502162605 | 62 | 6 | 1.0 | 6.0 | 0.00 | 0.00 | 0.00 | 17 | 1011.4 |
| 20260502162404 | 62 | 355 | 2.0 | 6.0 | 0.00 | 0.00 | 0.00 | 17 | 1011.5 |
| 20260502162305 | 62 | 345 | 1.0 | 6.0 | 0.00 | 0.00 | 0.00 | 18 | 1011.4 |
| 20260502162204 | 62 | 335 | 2.0 | 6.0 | 0.00 | 0.00 | 0.00 | 19 | 1011.4 |
| 20260502161904 | 61 | 335 | 2.0 | 5.0 | 0.00 | 0.00 | 0.00 | 20 | 1011.4 |
| 20260502161804 | 61 | 326 | 2.0 | 4.0 | 0.00 | 0.00 | 0.00 | 21 | 1011.5 |
| 20260502161704 | 61 | 0 | 0.0 | 4.0 | 0.00 | 0.00 | 0.00 | 21 | 1011.5 |
| 20260502161604 | 60 | 311 | 2.0 | 4.0 | 0.00 | 0.00 | 0.00 | 22 | 1011.4 |
| 20260502161504 | 60 | 308 | 2.0 | 4.0 | 0.00 | 0.00 | 0.00 | 22 | 1011.5 |
| 20260502161404 | 60 | 304 | 2.0 | 4.0 | 0.00 | 0.00 | 0.00 | 22 | 1011.6 |
| 20260502161204 | 60 | 0 | 0.0 | 4.0 | 0.00 | 0.00 | 0.00 | 23 | 1011.6 |
| 20260502161104 | 60 | 314 | 2.0 | 4.0 | 0.00 | 0.00 | 0.00 | 23 | 1011.6 |
| 20260502160904 | 59 | 301 | 2.0 | 4.0 | 0.00 | 0.00 | 0.00 | 23 | 1011.5 |
| 20260502160804 | 59 | 289 | 2.0 | 4.0 | 0.00 | 0.00 | 0.00 | 23 | 1011.6 |
| 20260502160705 | 59 | 295 | 2.0 | 4.0 | 0.00 | 0.00 | 0.00 | 23 | 1011.4 |
| 20260502160604 | 59 | 301 | 1.0 | 4.0 | 0.00 | 0.00 | 0.00 | 24 | 1011.4 |
| 20260502160404 | 59 | 0 | 0.0 | 2.0 | 0.00 | 0.00 | 0.00 | 24 | 1011.4 |
| 20260502160304 | 58 | 0 | 0.0 | 2.0 | 0.00 | 0.00 | 0.00 | 24 | 1011.5 |
| 20260502160204 | 58 | 313 | 1.0 | 2.0 | 0.00 | 0.00 | 0.00 | 24 | 1011.4 |
| 20260502160105 | 58 | 344 | 1.0 | 2.0 | 0.00 | 0.00 | 0.00 | 25 | 1011.4 |
| 20260502152305 | 52 | 83 | 1.0 | 3.0 | 0.00 | 0.00 | 0.00 | 33 | 1011.5 |
| 20260502152205 | 52 | 83 | 1.0 | 3.0 | 0.00 | 0.00 | 0.00 | 33 | 1011.5 |
| 20260502152104 | 52 | 0 | 0.0 | 3.0 | 0.00 | 0.00 | 0.00 | 33 | 1011.6 |
| 20260502151904 | 52 | 0 | 0.0 | 2.0 | 0.00 | 0.00 | 0.00 | 33 | 1011.4 |
| 20260502151705 | 52 | 89 | 2.0 | 2.0 | 0.00 | 0.00 | 0.00 | 33 | 1011.4 |
| 20260502151604 | 51 | 0 | 0.0 | 2.0 | 0.00 | 0.00 | 0.00 | 33 | 1011.5 |
| 20260502151504 | 51 | 0 | 0.0 | 2.0 | 0.00 | 0.00 | 0.00 | 33 | 1011.4 |
| 20260502151304 | 51 | 101 | 1.0 | 2.0 | 0.00 | 0.00 | 0.00 | 33 | 1011.5 |
| 20260502151205 | 51 | 107 | 1.0 | 2.0 | 0.00 | 0.00 | 0.00 | 34 | 1011.5 |
| 20260502151004 | 51 | 0 | 0.0 | 2.0 | 0.00 | 0.00 | 0.00 | 34 | 1011.5 |
| 20260502150905 | 50 | 0 | 0.0 | 2.0 | 0.00 | 0.00 | 0.00 | 34 | 1011.5 |
| 20260502150604 | 49 | 0 | 0.0 | 1.0 | 0.00 | 0.00 | 0.00 | 38 | 1011.5 |
| 20260502150305 | 49 | 0 | 0.0 | 1.0 | 0.00 | 0.00 | 0.00 | 38 | 1011.5 |
| 20260502150204 | 49 | 0 | 0.0 | 1.0 | 0.00 | 0.00 | 0.00 | 38 | 1011.5 |
| 20260502150105 | 49 | 0 | 0.0 | 1.0 | 0.00 | 0.00 | 0.00 | 38 | 1011.5 |
| 20260502140104 | 42 | 0 | 0.0 | 2.0 | 0.00 | 0.00 | 0.00 | 48 | 1011.4 |
| 20260502130704 | 40 | 0 | 0.0 | 1.0 | 0.00 | 0.00 | 0.00 | 45 | 1010.9 |
| 20260502130604 | 40 | 0 | 0.0 | 1.0 | 0.00 | 0.00 | 0.00 | 45 | 1010.8 |
| 20260502130403 | 40 | 0 | 0.0 | 1.0 | 0.00 | 0.00 | 0.00 | 45 | 1010.9 |
| 20260502130304 | 40 | 0 | 0.0 | 1.0 | 0.00 | 0.00 | 0.00 | 45 | 1010.9 |
| 20260502130204 | 40 | 0 | 0.0 | 1.0 | 0.00 | 0.00 | 0.00 | 45 | 1010.8 |
| 20260502123804 | 39 | 0 | 0.0 | 1.0 | 0.00 | 0.00 | 0.00 | 43 | 1010.7 |
| 20260502123504 | 39 | 0 | 0.0 | 1.0 | 0.00 | 0.00 | 0.00 | 43 | 1010.7 |
| 20260502123404 | 39 | 0 | 0.0 | 1.0 | 0.00 | 0.00 | 0.00 | 43 | 1010.6 |
| 20260502123304 | 39 | 0 | 0.0 | 1.0 | 0.00 | 0.00 | 0.00 | 43 | 1010.7 |
| 20260502123204 | 39 | 0 | 0.0 | 1.0 | 0.00 | 0.00 | 0.00 | 43 | 1010.8 |
| 20260502123104 | 39 | 0 | 0.0 | 1.0 | 0.00 | 0.00 | 0.00 | 43 | 1010.6 |
| 20260502123004 | 39 | 0 | 0.0 | 1.0 | 0.00 | 0.00 | 0.00 | 43 | 1010.7 |
| 20260502122904 | 39 | 0 | 0.0 | 1.0 | 0.00 | 0.00 | 0.00 | 43 | 1010.8 |
| 20260502122705 | 39 | 0 | 0.0 | 0.0 | 0.00 | 0.00 | 0.00 | 43 | 1010.8 |
| 20260502122604 | 39 | 0 | 0.0 | 0.0 | 0.00 | 0.00 | 0.00 | 43 | 1010.7 |
| 20260502122504 | 39 | 0 | 0.0 | 0.0 | 0.00 | 0.00 | 0.00 | 43 | 1010.7 |
| 20260502122404 | 39 | 0 | 0.0 | 0.0 | 0.00 | 0.00 | 0.00 | 44 | 1010.8 |
| 20260502122306 | 39 | 0 | 0.0 | 0.0 | 0.00 | 0.00 | 0.00 | 44 | 1010.8 |
| 20260502122204 | 39 | 0 | 0.0 | 0.0 | 0.00 | 0.00 | 0.00 | 44 | 1010.8 |
| 20260502122104 | 39 | 0 | 0.0 | 0.0 | 0.00 | 0.00 | 0.00 | 44 | 1010.7 |
| 20260502121904 | 39 | 0 | 0.0 | 1.0 | 0.00 | 0.00 | 0.00 | 43 | 1010.7 |
| 20260502121804 | 39 | 0 | 0.0 | 1.0 | 0.00 | 0.00 | 0.00 | 43 | 1010.6 |
| 20260502121703 | 39 | 0 | 0.0 | 1.0 | 0.00 | 0.00 | 0.00 | 43 | 1010.6 |
| 20260502121604 | 39 | 0 | 0.0 | 1.0 | 0.00 | 0.00 | 0.00 | 43 | 1010.6 |
| 20260502121405 | 39 | 0 | 0.0 | 1.0 | 0.00 | 0.00 | 0.00 | 42 | 1010.7 |
| 20260502121204 | 39 | 0 | 0.0 | 1.0 | 0.00 | 0.00 | 0.00 | 42 | 1010.8 |
| 20260502121105 | 39 | 0 | 0.0 | 1.0 | 0.00 | 0.00 | 0.00 | 41 | 1010.7 |
| 20260502121005 | 40 | 0 | 0.0 | 1.0 | 0.00 | 0.00 | 0.00 | 41 | 1010.6 |
| 20260502120904 | 40 | 0 | 0.0 | 1.0 | 0.00 | 0.00 | 0.00 | 41 | 1010.7 |
| 20260502120704 | 40 | 0 | 0.0 | 1.0 | 0.00 | 0.00 | 0.00 | 40 | 1010.6 |
| 20260502120604 | 40 | 0 | 0.0 | 1.0 | 0.00 | 0.00 | 0.00 | 40 | 1010.6 |
| 20260502120504 | 40 | 0 | 0.0 | 2.0 | 0.00 | 0.00 | 0.00 | 40 | 1010.6 |
| 20260502120404 | 40 | 0 | 0.0 | 2.0 | 0.00 | 0.00 | 0.00 | 41 | 1010.7 |
| 20260502120305 | 40 | 0 | 0.0 | 2.0 | 0.00 | 0.00 | 0.00 | 41 | 1010.6 |
| 20260502120204 | 40 | 0 | 0.0 | 2.0 | 0.00 | 0.00 | 0.00 | 41 | 1010.7 |
| 20260502120104 | 40 | 0 | 0.0 | 2.0 | 0.00 | 0.00 | 0.00 | 41 | 1010.6 |
| 20260502115904 | 40 | 0 | 0.0 | 2.0 | 0.00 | 0.00 | 0.00 | 41 | 1010.7 |
| 20260502115803 | 40 | 0 | 0.0 | 2.0 | 0.00 | 0.00 | 0.00 | 40 | 1010.7 |
| 20260502115604 | 40 | 0 | 0.0 | 2.0 | 0.00 | 0.00 | 0.00 | 40 | 1010.6 |
| 20260502115504 | 40 | 0 | 0.0 | 2.0 | 0.00 | 0.00 | 0.00 | 40 | 1010.7 |
| 20260502115404 | 40 | 0 | 0.0 | 2.0 | 0.00 | 0.00 | 0.00 | 40 | 1010.6 |
| 20260502115306 | 40 | 0 | 0.0 | 2.0 | 0.00 | 0.00 | 0.00 | 40 | 1010.6 |
| 20260502115204 | 40 | 0 | 0.0 | 2.0 | 0.00 | 0.00 | 0.00 | 40 | 1010.6 |
| 20260502115105 | 40 | 0 | 0.0 | 2.0 | 0.00 | 0.00 | 0.00 | 40 | 1010.6 |
| 20260502115004 | 40 | 201 | 1.0 | 2.0 | 0.00 | 0.00 | 0.00 | 40 | 1010.6 |
| 20260502114903 | 40 | 170 | 2.0 | 2.0 | 0.00 | 0.00 | 0.00 | 40 | 1010.6 |
| 20260502114804 | 40 | 0 | 0.0 | 1.0 | 0.00 | 0.00 | 0.00 | 39 | 1010.6 |
| 20260502114704 | 40 | 0 | 0.0 | 1.0 | 0.00 | 0.00 | 0.00 | 39 | 1010.7 |
| 20260502114504 | 40 | 0 | 0.0 | 2.0 | 0.00 | 0.00 | 0.00 | 38 | 1010.6 |
| 20260502114404 | 40 | 0 | 0.0 | 2.0 | 0.00 | 0.00 | 0.00 | 38 | 1010.8 |
| 20260502114303 | 41 | 0 | 0.0 | 2.0 | 0.00 | 0.00 | 0.00 | 38 | 1010.6 |
| 20260502114204 | 41 | 0 | 0.0 | 2.0 | 0.00 | 0.00 | 0.00 | 38 | 1010.7 |
| 20260502114104 | 41 | 0 | 0.0 | 2.0 | 0.00 | 0.00 | 0.00 | 37 | 1010.7 |
| 20260502114004 | 41 | 0 | 0.0 | 2.0 | 0.00 | 0.00 | 0.00 | 37 | 1010.6 |
| 20260502113904 | 41 | 0 | 0.0 | 2.0 | 0.00 | 0.00 | 0.00 | 37 | 1010.7 |
| 20260502113803 | 41 | 0 | 0.0 | 2.0 | 0.00 | 0.00 | 0.00 | 37 | 1010.7 |
| 20260502113604 | 42 | 0 | 0.0 | 2.0 | 0.00 | 0.00 | 0.00 | 37 | 1010.7 |
| 20260502113504 | 42 | 0 | 0.0 | 1.0 | 0.00 | 0.00 | 0.00 | 37 | 1010.7 |
| 20260502113404 | 42 | 0 | 0.0 | 1.0 | 0.00 | 0.00 | 0.00 | 37 | 1010.8 |
| 20260502113304 | 42 | 0 | 0.0 | 1.0 | 0.00 | 0.00 | 0.00 | 37 | 1010.6 |
| 20260502113104 | 42 | 0 | 0.0 | 1.0 | 0.00 | 0.00 | 0.00 | 35 | 1010.7 |
| 20260502113004 | 42 | 0 | 0.0 | 1.0 | 0.00 | 0.00 | 0.00 | 35 | 1010.7 |
| 20260502112904 | 42 | 0 | 0.0 | 1.0 | 0.00 | 0.00 | 0.00 | 35 | 1010.7 |
| 20260502112804 | 42 | 0 | 0.0 | 1.0 | 0.00 | 0.00 | 0.00 | 36 | 1010.7 |
| 20260502112704 | 42 | 0 | 0.0 | 1.0 | 0.00 | 0.00 | 0.00 | 36 | 1010.7 |
| 20260502112604 | 42 | 0 | 0.0 | 1.0 | 0.00 | 0.00 | 0.00 | 36 | 1010.6 |
| 20260502112504 | 42 | 0 | 0.0 | 1.0 | 0.00 | 0.00 | 0.00 | 36 | 1010.7 |
| 20260502112404 | 41 | 0 | 0.0 | 2.0 | 0.00 | 0.00 | 0.00 | 36 | 1010.7 |
| 20260502112305 | 41 | 0 | 0.0 | 3.0 | 0.00 | 0.00 | 0.00 | 36 | 1010.7 |
| 20260502112203 | 41 | 0 | 0.0 | 3.0 | 0.00 | 0.00 | 0.00 | 37 | 1010.7 |
| 20260502112104 | 41 | 0 | 0.0 | 3.0 | 0.00 | 0.00 | 0.00 | 37 | 1010.7 |
| 20260502112004 | 41 | 0 | 0.0 | 3.0 | 0.00 | 0.00 | 0.00 | 38 | 1010.7 |
| 20260502111903 | 40 | 0 | 0.0 | 3.0 | 0.00 | 0.00 | 0.00 | 38 | 1010.7 |
| 20260502111804 | 40 | 0 | 0.0 | 3.0 | 0.00 | 0.00 | 0.00 | 38 | 1010.7 |
| 20260502111704 | 40 | 0 | 0.0 | 3.0 | 0.00 | 0.00 | 0.00 | 38 | 1010.7 |
| 20260502111604 | 40 | 0 | 0.0 | 3.0 | 0.00 | 0.00 | 0.00 | 39 | 1010.8 |
| 20260502111504 | 40 | 0 | 0.0 | 3.0 | 0.00 | 0.00 | 0.00 | 39 | 1010.7 |
| 20260502111404 | 40 | 0 | 0.0 | 3.0 | 0.00 | 0.00 | 0.00 | 39 | 1010.7 |
| 20260502111204 | 39 | 90 | 2.0 | 2.0 | 0.00 | 0.00 | 0.00 | 39 | 1010.7 |
| 20260502111004 | 39 | 90 | 1.0 | 2.0 | 0.00 | 0.00 | 0.00 | 39 | 1010.7 |
| 20260502110904 | 39 | 0 | 0.0 | 1.0 | 0.00 | 0.00 | 0.00 | 39 | 1010.6 |
| 20260502110804 | 39 | 0 | 0.0 | 1.0 | 0.00 | 0.00 | 0.00 | 39 | 1010.5 |
| 20260502110704 | 40 | 0 | 0.0 | 0.0 | 0.00 | 0.00 | 0.00 | 38 | 1010.6 |
| 20260502110604 | 40 | 0 | 0.0 | 1.0 | 0.00 | 0.00 | 0.00 | 38 | 1010.6 |
| 20260502110505 | 40 | 0 | 0.0 | 1.0 | 0.00 | 0.00 | 0.00 | 38 | 1010.6 |
| 20260502110404 | 40 | 0 | 0.0 | 1.0 | 0.00 | 0.00 | 0.00 | 38 | 1010.7 |
| 20260502110104 | 40 | 0 | 0.0 | 2.0 | 0.00 | 0.00 | 0.00 | 38 | 1010.7 |
| 20260502110005 | 40 | 0 | 0.0 | 2.0 | 0.00 | 0.00 | 0.00 | 38 | 1010.7 |
| 20260502105904 | 40 | 0 | 0.0 | 2.0 | 0.00 | 0.00 | 0.00 | 38 | 1010.6 |
| 20260502105804 | 40 | 0 | 0.0 | 2.0 | 0.00 | 0.00 | 0.00 | 38 | 1010.5 |
| 20260502105704 | 40 | 0 | 0.0 | 2.0 | 0.00 | 0.00 | 0.00 | 38 | 1010.6 |
| 20260502105604 | 40 | 0 | 0.0 | 2.0 | 0.00 | 0.00 | 0.00 | 38 | 1010.7 |
| 20260502105504 | 40 | 0 | 0.0 | 2.0 | 0.00 | 0.00 | 0.00 | 38 | 1010.6 |
| 20260502105404 | 40 | 0 | 0.0 | 2.0 | 0.00 | 0.00 | 0.00 | 38 | 1010.6 |
| 20260502105306 | 40 | 0 | 0.0 | 2.0 | 0.00 | 0.00 | 0.00 | 38 | 1010.6 |
| 20260502105204 | 40 | 0 | 0.0 | 1.0 | 0.00 | 0.00 | 0.00 | 38 | 1010.6 |
| 20260502105104 | 40 | 0 | 0.0 | 1.0 | 0.00 | 0.00 | 0.00 | 38 | 1010.6 |
| 20260502105004 | 40 | 0 | 0.0 | 1.0 | 0.00 | 0.00 | 0.00 | 38 | 1010.6 |
| 20260502104906 | 40 | 0 | 0.0 | 1.0 | 0.00 | 0.00 | 0.00 | 38 | 1010.7 |
| 20260502104803 | 40 | 0 | 0.0 | 1.0 | 0.00 | 0.00 | 0.00 | 38 | 1010.7 |
| 20260502104704 | 40 | 0 | 0.0 | 1.0 | 0.00 | 0.00 | 0.00 | 38 | 1010.8 |
| 20260502104603 | 40 | 0 | 0.0 | 1.0 | 0.00 | 0.00 | 0.00 | 38 | 1010.7 |
| 20260502104505 | 40 | 0 | 0.0 | 1.0 | 0.00 | 0.00 | 0.00 | 38 | 1010.8 |
| 20260502104404 | 40 | 0 | 0.0 | 1.0 | 0.00 | 0.00 | 0.00 | 39 | 1010.7 |
| 20260502104304 | 40 | 0 | 0.0 | 1.0 | 0.00 | 0.00 | 0.00 | 39 | 1010.7 |
| 20260502104204 | 40 | 0 | 0.0 | 1.0 | 0.00 | 0.00 | 0.00 | 38 | 1010.8 |
| 20260502104104 | 40 | 0 | 0.0 | 1.0 | 0.00 | 0.00 | 0.00 | 38 | 1010.7 |
| 20260502104004 | 40 | 0 | 0.0 | 1.0 | 0.00 | 0.00 | 0.00 | 38 | 1010.7 |
| 20260502103904 | 40 | 0 | 0.0 | 1.0 | 0.00 | 0.00 | 0.00 | 38 | 1010.7 |
| 20260502103804 | 40 | 0 | 0.0 | 1.0 | 0.00 | 0.00 | 0.00 | 38 | 1010.7 |
| 20260502103704 | 41 | 0 | 0.0 | 1.0 | 0.00 | 0.00 | 0.00 | 38 | 1010.7 |
| 20260502103503 | 41 | 0 | 0.0 | 1.0 | 0.00 | 0.00 | 0.00 | 38 | 1010.8 |
| 20260502103404 | 41 | 0 | 0.0 | 1.0 | 0.00 | 0.00 | 0.00 | 38 | 1010.6 |
| 20260502103304 | 41 | 0 | 0.0 | 1.0 | 0.00 | 0.00 | 0.00 | 37 | 1010.7 |
| 20260502103205 | 41 | 0 | 0.0 | 1.0 | 0.00 | 0.00 | 0.00 | 37 | 1010.7 |
| 20260502103104 | 41 | 0 | 0.0 | 1.0 | 0.00 | 0.00 | 0.00 | 38 | 1010.8 |
| 20260502103004 | 41 | 0 | 0.0 | 1.0 | 0.00 | 0.00 | 0.00 | 38 | 1010.7 |
| 20260502102904 | 42 | 0 | 0.0 | 0.0 | 0.00 | 0.00 | 0.00 | 38 | 1010.7 |
| 20260502102804 | 42 | 0 | 0.0 | 0.0 | 0.00 | 0.00 | 0.00 | 37 | 1010.7 |
| 20260502102704 | 42 | 0 | 0.0 | 0.0 | 0.00 | 0.00 | 0.00 | 37 | 1010.7 |
| 20260502102604 | 42 | 0 | 0.0 | 0.0 | 0.00 | 0.00 | 0.00 | 37 | 1010.6 |
| 20260502102503 | 42 | 0 | 0.0 | 1.0 | 0.00 | 0.00 | 0.00 | 37 | 1010.7 |
| 20260502102404 | 42 | 0 | 0.0 | 1.0 | 0.00 | 0.00 | 0.00 | 37 | 1010.7 |
| 20260502102204 | 42 | 0 | 0.0 | 1.0 | 0.00 | 0.00 | 0.00 | 37 | 1010.7 |
| 20260502102104 | 42 | 0 | 0.0 | 1.0 | 0.00 | 0.00 | 0.00 | 37 | 1010.7 |
| 20260502102004 | 42 | 0 | 0.0 | 1.0 | 0.00 | 0.00 | 0.00 | 37 | 1010.6 |
| 20260502101903 | 42 | 0 | 0.0 | 1.0 | 0.00 | 0.00 | 0.00 | 37 | 1010.7 |
| 20260502101804 | 42 | 0 | 0.0 | 2.0 | 0.00 | 0.00 | 0.00 | 37 | 1010.8 |
| 20260502101704 | 42 | 0 | 0.0 | 2.0 | 0.00 | 0.00 | 0.00 | 37 | 1010.6 |
| 20260502101604 | 42 | 0 | 0.0 | 2.0 | 0.00 | 0.00 | 0.00 | 37 | 1010.6 |
| 20260502101504 | 42 | 0 | 0.0 | 2.0 | 0.00 | 0.00 | 0.00 | 37 | 1010.7 |
| 20260502101404 | 42 | 0 | 0.0 | 2.0 | 0.00 | 0.00 | 0.00 | 37 | 1010.6 |
| 20260502101303 | 42 | 0 | 0.0 | 2.0 | 0.00 | 0.00 | 0.00 | 37 | 1010.6 |
| 20260502101204 | 42 | 0 | 0.0 | 2.0 | 0.00 | 0.00 | 0.00 | 37 | 1010.6 |
| 20260502101104 | 42 | 0 | 0.0 | 2.0 | 0.00 | 0.00 | 0.00 | 37 | 1010.6 |
| 20260502101004 | 42 | 0 | 0.0 | 2.0 | 0.00 | 0.00 | 0.00 | 37 | 1010.6 |
| 20260502100904 | 42 | 0 | 0.0 | 2.0 | 0.00 | 0.00 | 0.00 | 37 | 1010.6 |
| 20260502100804 | 42 | 0 | 0.0 | 1.0 | 0.00 | 0.00 | 0.00 | 35 | 1010.6 |
| 20260502100704 | 42 | 0 | 0.0 | 1.0 | 0.00 | 0.00 | 0.00 | 35 | 1010.7 |
| 20260502100604 | 42 | 0 | 0.0 | 1.0 | 0.00 | 0.00 | 0.00 | 35 | 1010.5 |
| 20260502100504 | 42 | 0 | 0.0 | 1.0 | 0.00 | 0.00 | 0.00 | 35 | 1010.5 |
| 20260502100204 | 42 | 0 | 0.0 | 3.0 | 0.00 | 0.00 | 0.00 | 35 | 1010.5 |
| 20260502100104 | 42 | 0 | 0.0 | 3.0 | 0.00 | 0.00 | 0.00 | 35 | 1010.6 |
| 20260502091504 | 43 | 0 | 0.0 | 3.0 | 0.00 | 0.00 | 0.00 | 37 | 1010.8 |
| 20260502091404 | 43 | 0 | 0.0 | 3.0 | 0.00 | 0.00 | 0.00 | 36 | 1011.0 |
| 20260502091304 | 43 | 0 | 0.0 | 3.0 | 0.00 | 0.00 | 0.00 | 36 | 1010.9 |
| 20260502091204 | 44 | 0 | 0.0 | 3.0 | 0.00 | 0.00 | 0.00 | 35 | 1011.0 |
| 20260502091104 | 44 | 0 | 0.0 | 3.0 | 0.00 | 0.00 | 0.00 | 35 | 1011.0 |
| 20260502091004 | 44 | 110 | 2.0 | 3.0 | 0.00 | 0.00 | 0.00 | 34 | 1011.0 |
| 20260502090905 | 44 | 118 | 2.0 | 3.0 | 0.00 | 0.00 | 0.00 | 34 | 1010.9 |
| 20260502090804 | 44 | 0 | 0.0 | 1.0 | 0.00 | 0.00 | 0.00 | 34 | 1010.9 |
| 20260502090704 | 45 | 0 | 0.0 | 1.0 | 0.00 | 0.00 | 0.00 | 33 | 1011.0 |
| 20260502090604 | 45 | 0 | 0.0 | 1.0 | 0.00 | 0.00 | 0.00 | 33 | 1011.0 |
| 20260502090504 | 45 | 0 | 0.0 | 1.0 | 0.00 | 0.00 | 0.00 | 33 | 1011.0 |
| 20260502090404 | 45 | 0 | 0.0 | 1.0 | 0.00 | 0.00 | 0.00 | 33 | 1011.0 |
| 20260502090304 | 45 | 0 | 0.0 | 1.0 | 0.00 | 0.00 | 0.00 | 33 | 1011.1 |
| 20260502090203 | 45 | 0 | 0.0 | 1.0 | 0.00 | 0.00 | 0.00 | 33 | 1011.0 |
| 20260502090104 | 45 | 0 | 0.0 | 1.0 | 0.00 | 0.00 | 0.00 | 33 | 1011.0 |
| 20260502080104 | 45 | 0 | 0.0 | 2.0 | 0.00 | 0.00 | 0.00 | 27 | 1011.4 |
| 20260502071504 | 47 | 101 | 1.0 | 3.0 | 0.00 | 0.00 | 0.00 | 25 | 1011.4 |
| 20260502071303 | 47 | 0 | 0.0 | 3.0 | 0.00 | 0.00 | 0.00 | 25 | 1011.4 |
| 20260502071204 | 47 | 92 | 2.0 | 3.0 | 0.00 | 0.00 | 0.00 | 25 | 1011.4 |
| 20260502071104 | 47 | 93 | 1.0 | 3.0 | 0.00 | 0.00 | 0.00 | 26 | 1011.4 |
| 20260502071003 | 47 | 0 | 0.0 | 2.0 | 0.00 | 0.00 | 0.00 | 26 | 1011.4 |
| 20260502070904 | 47 | 0 | 0.0 | 2.0 | 0.00 | 0.00 | 0.00 | 26 | 1011.5 |
| 20260502070803 | 48 | 0 | 0.0 | 2.0 | 0.00 | 0.00 | 0.00 | 27 | 1011.5 |
| 20260502070704 | 49 | 91 | 1.0 | 2.0 | 0.00 | 0.00 | 0.00 | 28 | 1011.4 |
| 20260502070604 | 49 | 91 | 1.0 | 2.0 | 0.00 | 0.00 | 0.00 | 28 | 1011.4 |
| 20260502070504 | 49 | 91 | 1.0 | 3.0 | 0.00 | 0.00 | 0.00 | 28 | 1011.5 |
| 20260502070404 | 49 | 87 | 1.0 | 3.0 | 0.00 | 0.00 | 0.00 | 28 | 1011.5 |
| 20260502070204 | 49 | 91 | 1.0 | 3.0 | 0.00 | 0.00 | 0.00 | 28 | 1011.4 |
| 20260502070104 | 49 | 94 | 1.0 | 3.0 | 0.00 | 0.00 | 0.00 | 28 | 1011.4 |
| 20260502070006 | 49 | 0 | 0.0 | 3.0 | 0.00 | 0.00 | 0.00 | 27 | 1011.4 |
| 20260502065904 | 49 | 0 | 0.0 | 3.0 | 0.00 | 0.00 | 0.00 | 27 | 1011.4 |
| 20260502065804 | 49 | 0 | 0.0 | 3.0 | 0.00 | 0.00 | 0.00 | 27 | 1011.5 |
| 20260502065704 | 50 | 0 | 0.0 | 4.0 | 0.00 | 0.00 | 0.00 | 28 | 1011.6 |
| 20260502065603 | 50 | 88 | 2.0 | 4.0 | 0.00 | 0.00 | 0.00 | 28 | 1011.5 |
| 20260502065404 | 50 | 0 | 0.0 | 4.0 | 0.00 | 0.00 | 0.00 | 27 | 1011.4 |
| 20260502065306 | 50 | 0 | 0.0 | 4.0 | 0.00 | 0.00 | 0.00 | 27 | 1011.4 |
| 20260502065204 | 50 | 0 | 0.0 | 4.0 | 0.00 | 0.00 | 0.00 | 27 | 1011.4 |
| 20260502065103 | 50 | 124 | 1.0 | 4.0 | 0.00 | 0.00 | 0.00 | 27 | 1011.4 |
| 20260502064904 | 50 | 138 | 1.0 | 4.0 | 0.00 | 0.00 | 0.00 | 27 | 1011.4 |
| 20260502064804 | 50 | 140 | 2.0 | 4.0 | 0.00 | 0.00 | 0.00 | 27 | 1011.4 |
| 20260502064704 | 50 | 144 | 2.0 | 4.0 | 0.00 | 0.00 | 0.00 | 27 | 1011.5 |
| 20260502064604 | 50 | 135 | 2.0 | 4.0 | 0.00 | 0.00 | 0.00 | 27 | 1011.4 |
| 20260502064504 | 49 | 134 | 1.0 | 4.0 | 0.00 | 0.00 | 0.00 | 28 | 1011.5 |
| 20260502064404 | 49 | 0 | 0.0 | 4.0 | 0.00 | 0.00 | 0.00 | 28 | 1011.4 |
| 20260502064304 | 49 | 123 | 1.0 | 4.0 | 0.00 | 0.00 | 0.00 | 28 | 1011.4 |
| 20260502064204 | 49 | 126 | 1.0 | 4.0 | 0.00 | 0.00 | 0.00 | 28 | 1011.5 |
| 20260502064104 | 49 | 0 | 0.0 | 4.0 | 0.00 | 0.00 | 0.00 | 28 | 1011.4 |
| 20260502064003 | 49 | 121 | 1.0 | 4.0 | 0.00 | 0.00 | 0.00 | 28 | 1011.5 |
| 20260502063904 | 49 | 121 | 2.0 | 4.0 | 0.00 | 0.00 | 0.00 | 28 | 1011.5 |
| 20260502063804 | 49 | 118 | 2.0 | 4.0 | 0.00 | 0.00 | 0.00 | 28 | 1011.5 |
| 20260502063704 | 49 | 0 | 0.0 | 4.0 | 0.00 | 0.00 | 0.00 | 28 | 1011.4 |
| 20260502063604 | 49 | 117 | 2.0 | 4.0 | 0.00 | 0.00 | 0.00 | 28 | 1011.4 |
| 20260502063404 | 49 | 0 | 0.0 | 4.0 | 0.00 | 0.00 | 0.00 | 27 | 1011.4 |
| 20260502063204 | 48 | 121 | 1.0 | 4.0 | 0.00 | 0.00 | 0.00 | 28 | 1011.5 |
| 20260502063104 | 48 | 119 | 1.0 | 4.0 | 0.00 | 0.00 | 0.00 | 28 | 1011.4 |
| 20260502063003 | 48 | 116 | 2.0 | 4.0 | 0.00 | 0.00 | 0.00 | 28 | 1011.4 |
| 20260502062704 | 48 | 123 | 2.0 | 4.0 | 0.00 | 0.00 | 0.00 | 26 | 1011.5 |
| 20260502062604 | 48 | 141 | 1.0 | 3.0 | 0.00 | 0.00 | 0.00 | 26 | 1011.5 |
| 20260502062503 | 48 | 135 | 1.0 | 3.0 | 0.00 | 0.00 | 0.00 | 25 | 1011.4 |
| 20260502062404 | 48 | 128 | 1.0 | 2.0 | 0.00 | 0.00 | 0.00 | 24 | 1011.4 |
| 20260502062306 | 48 | 0 | 0.0 | 2.0 | 0.00 | 0.00 | 0.00 | 24 | 1011.4 |
| 20260502062204 | 48 | 0 | 0.0 | 1.0 | 0.00 | 0.00 | 0.00 | 24 | 1011.3 |
| 20260502062104 | 48 | 0 | 0.0 | 1.0 | 0.00 | 0.00 | 0.00 | 24 | 1011.4 |
| 20260502062004 | 49 | 0 | 0.0 | 1.0 | 0.00 | 0.00 | 0.00 | 24 | 1011.3 |
| 20260502061904 | 49 | 0 | 0.0 | 1.0 | 0.00 | 0.00 | 0.00 | 24 | 1011.3 |
| 20260502061803 | 49 | 0 | 0.0 | 1.0 | 0.00 | 0.00 | 0.00 | 24 | 1011.2 |
| 20260502061704 | 49 | 0 | 0.0 | 1.0 | 0.00 | 0.00 | 0.00 | 24 | 1011.1 |
| 20260502061604 | 49 | 0 | 0.0 | 1.0 | 0.00 | 0.00 | 0.00 | 23 | 1011.3 |
| 20260502061504 | 49 | 0 | 0.0 | 1.0 | 0.00 | 0.00 | 0.00 | 24 | 1011.3 |
| 20260502061404 | 49 | 0 | 0.0 | 1.0 | 0.00 | 0.00 | 0.00 | 24 | 1011.2 |
| 20260502061303 | 49 | 0 | 0.0 | 1.0 | 0.00 | 0.00 | 0.00 | 23 | 1011.3 |
| 20260502061204 | 49 | 0 | 0.0 | 1.0 | 0.00 | 0.00 | 0.00 | 23 | 1011.4 |
| 20260502061104 | 49 | 0 | 0.0 | 1.0 | 0.00 | 0.00 | 0.00 | 24 | 1011.4 |
| 20260502061004 | 49 | 0 | 0.0 | 1.0 | 0.00 | 0.00 | 0.00 | 24 | 1011.4 |
| 20260502060904 | 49 | 0 | 0.0 | 1.0 | 0.00 | 0.00 | 0.00 | 24 | 1011.3 |
| 20260502060604 | 49 | 0 | 0.0 | 1.0 | 0.00 | 0.00 | 0.00 | 24 | 1011.3 |
| 20260502060503 | 49 | 0 | 0.0 | 2.0 | 0.00 | 0.00 | 0.00 | 24 | 1011.4 |
| 20260502060404 | 49 | 0 | 0.0 | 2.0 | 0.00 | 0.00 | 0.00 | 24 | 1011.4 |
| 20260502060304 | 49 | 0 | 0.0 | 2.0 | 0.00 | 0.00 | 0.00 | 24 | 1011.4 |
| 20260502060203 | 49 | 0 | 0.0 | 2.0 | 0.00 | 0.00 | 0.00 | 24 | 1011.4 |
| 20260502060104 | 49 | 0 | 0.0 | 2.0 | 0.00 | 0.00 | 0.00 | 24 | 1011.4 |
| 20260502060004 | 49 | 0 | 0.0 | 2.0 | 0.00 | 0.00 | 0.00 | 24 | 1011.4 |
| 20260502055904 | 49 | 0 | 0.0 | 2.0 | 0.00 | 0.00 | 0.00 | 24 | 1011.4 |
| 20260502055804 | 49 | 0 | 0.0 | 2.0 | 0.00 | 0.00 | 0.00 | 24 | 1011.4 |
| 20260502055703 | 49 | 0 | 0.0 | 2.0 | 0.00 | 0.00 | 0.00 | 24 | 1011.4 |
| 20260502055603 | 49 | 0 | 0.0 | 2.0 | 0.00 | 0.00 | 0.00 | 24 | 1011.4 |
| 20260502055404 | 49 | 0 | 0.0 | 2.0 | 0.00 | 0.00 | 0.00 | 24 | 1011.4 |
| 20260502055306 | 50 | 0 | 0.0 | 1.0 | 0.00 | 0.00 | 0.00 | 24 | 1011.3 |
| 20260502055204 | 50 | 0 | 0.0 | 1.0 | 0.00 | 0.00 | 0.00 | 24 | 1011.4 |
| 20260502055103 | 50 | 0 | 0.0 | 1.0 | 0.00 | 0.00 | 0.00 | 25 | 1011.3 |
| 20260502055004 | 49 | 0 | 0.0 | 1.0 | 0.00 | 0.00 | 0.00 | 24 | 1011.3 |
| 20260502054904 | 49 | 0 | 0.0 | 1.0 | 0.00 | 0.00 | 0.00 | 24 | 1011.4 |
| 20260502054704 | 49 | 0 | 0.0 | 1.0 | 0.00 | 0.00 | 0.00 | 24 | 1011.4 |
| 20260502054604 | 49 | 0 | 0.0 | 1.0 | 0.00 | 0.00 | 0.00 | 24 | 1011.4 |
| 20260502054504 | 49 | 0 | 0.0 | 1.0 | 0.00 | 0.00 | 0.00 | 24 | 1011.3 |
| 20260502054404 | 49 | 0 | 0.0 | 1.0 | 0.00 | 0.00 | 0.00 | 24 | 1011.4 |
| 20260502054303 | 49 | 0 | 0.0 | 1.0 | 0.00 | 0.00 | 0.00 | 24 | 1011.4 |
| 20260502054204 | 49 | 0 | 0.0 | 1.0 | 0.00 | 0.00 | 0.00 | 24 | 1011.4 |
| 20260502054104 | 49 | 0 | 0.0 | 1.0 | 0.00 | 0.00 | 0.00 | 24 | 1011.4 |
| 20260502054003 | 49 | 0 | 0.0 | 1.0 | 0.00 | 0.00 | 0.00 | 23 | 1011.4 |
| 20260502053904 | 50 | 0 | 0.0 | 1.0 | 0.00 | 0.00 | 0.00 | 23 | 1011.3 |
| 20260502053803 | 50 | 0 | 0.0 | 1.0 | 0.00 | 0.00 | 0.00 | 23 | 1011.4 |
| 20260502053704 | 50 | 0 | 0.0 | 1.0 | 0.00 | 0.00 | 0.00 | 23 | 1011.3 |
| 20260502053604 | 50 | 0 | 0.0 | 1.0 | 0.00 | 0.00 | 0.00 | 23 | 1011.4 |
| 20260502053504 | 50 | 0 | 0.0 | 1.0 | 0.00 | 0.00 | 0.00 | 23 | 1011.3 |
| 20260502053405 | 50 | 0 | 0.0 | 1.0 | 0.00 | 0.00 | 0.00 | 23 | 1011.4 |
| 20260502053304 | 50 | 0 | 0.0 | 1.0 | 0.00 | 0.00 | 0.00 | 23 | 1011.4 |
| 20260502053204 | 50 | 0 | 0.0 | 1.0 | 0.00 | 0.00 | 0.00 | 23 | 1011.4 |
| 20260502053103 | 50 | 0 | 0.0 | 2.0 | 0.00 | 0.00 | 0.00 | 23 | 1011.4 |
| 20260502053004 | 51 | 0 | 0.0 | 2.0 | 0.00 | 0.00 | 0.00 | 23 | 1011.3 |
| 20260502052904 | 51 | 0 | 0.0 | 2.0 | 0.00 | 0.00 | 0.00 | 22 | 1011.4 |
| 20260502052803 | 50 | 0 | 0.0 | 2.0 | 0.00 | 0.00 | 0.00 | 22 | 1011.4 |
| 20260502052704 | 51 | 0 | 0.0 | 2.0 | 0.00 | 0.00 | 0.00 | 22 | 1011.4 |
| 20260502052604 | 51 | 0 | 0.0 | 2.0 | 0.00 | 0.00 | 0.00 | 22 | 1011.4 |
| 20260502052504 | 51 | 0 | 0.0 | 2.0 | 0.00 | 0.00 | 0.00 | 22 | 1011.3 |
| 20260502052403 | 51 | 0 | 0.0 | 2.0 | 0.00 | 0.00 | 0.00 | 21 | 1011.3 |
| 20260502052306 | 51 | 0 | 0.0 | 2.0 | 0.00 | 0.00 | 0.00 | 21 | 1011.2 |
| 20260502052204 | 51 | 0 | 0.0 | 2.0 | 0.00 | 0.00 | 0.00 | 21 | 1011.3 |
| 20260502052104 | 51 | 93 | 1.0 | 2.0 | 0.00 | 0.00 | 0.00 | 21 | 1011.3 |
| 20260502052004 | 51 | 0 | 0.0 | 2.0 | 0.00 | 0.00 | 0.00 | 21 | 1011.2 |
| 20260502051904 | 51 | 0 | 0.0 | 2.0 | 0.00 | 0.00 | 0.00 | 21 | 1011.3 |
| 20260502051804 | 51 | 0 | 0.0 | 2.0 | 0.00 | 0.00 | 0.00 | 21 | 1011.3 |
| 20260502051703 | 51 | 0 | 0.0 | 2.0 | 0.00 | 0.00 | 0.00 | 21 | 1011.3 |
| 20260502051604 | 51 | 0 | 0.0 | 2.0 | 0.00 | 0.00 | 0.00 | 21 | 1011.3 |
| 20260502051504 | 51 | 0 | 0.0 | 2.0 | 0.00 | 0.00 | 0.00 | 21 | 1011.3 |
| 20260502051304 | 51 | 0 | 0.0 | 2.0 | 0.00 | 0.00 | 0.00 | 20 | 1011.4 |
| 20260502051104 | 52 | 0 | 0.0 | 2.0 | 0.00 | 0.00 | 0.00 | 19 | 1011.3 |
| 20260502051004 | 52 | 0 | 0.0 | 2.0 | 0.00 | 0.00 | 0.00 | 19 | 1011.3 |
| 20260502050904 | 52 | 0 | 0.0 | 1.0 | 0.00 | 0.00 | 0.00 | 19 | 1011.4 |
| 20260502050804 | 53 | 0 | 0.0 | 1.0 | 0.00 | 0.00 | 0.00 | 18 | 1011.3 |
| 20260502050704 | 53 | 0 | 0.0 | 0.0 | 0.00 | 0.00 | 0.00 | 18 | 1011.4 |
| 20260502050604 | 53 | 0 | 0.0 | 0.0 | 0.00 | 0.00 | 0.00 | 18 | 1011.4 |
| 20260502050504 | 53 | 0 | 0.0 | 0.0 | 0.00 | 0.00 | 0.00 | 18 | 1011.4 |
| 20260502050404 | 53 | 0 | 0.0 | 0.0 | 0.00 | 0.00 | 0.00 | 18 | 1011.4 |
| 20260502050304 | 53 | 0 | 0.0 | 0.0 | 0.00 | 0.00 | 0.00 | 18 | 1011.2 |
| 20260502050204 | 53 | 0 | 0.0 | 0.0 | 0.00 | 0.00 | 0.00 | 18 | 1011.3 |
| 20260502050104 | 53 | 0 | 0.0 | 0.0 | 0.00 | 0.00 | 0.00 | 18 | 1011.3 |
| 20260502050004 | 53 | 0 | 0.0 | 0.0 | 0.00 | 0.00 | 0.00 | 18 | 1011.4 |
| 20260502045903 | 53 | 0 | 0.0 | 0.0 | 0.00 | 0.00 | 0.00 | 18 | 1011.4 |
| 20260502045803 | 53 | 0 | 0.0 | 0.0 | 0.00 | 0.00 | 0.00 | 18 | 1011.3 |
| 20260502045704 | 53 | 0 | 0.0 | 1.0 | 0.00 | 0.00 | 0.00 | 18 | 1011.2 |
| 20260502045603 | 53 | 0 | 0.0 | 1.0 | 0.00 | 0.00 | 0.00 | 18 | 1011.4 |
| 20260502045306 | 53 | 0 | 0.0 | 1.0 | 0.00 | 0.00 | 0.00 | 18 | 1011.4 |
| 20260502045104 | 53 | 0 | 0.0 | 1.0 | 0.00 | 0.00 | 0.00 | 18 | 1011.3 |
| 20260502045004 | 53 | 0 | 0.0 | 1.0 | 0.00 | 0.00 | 0.00 | 17 | 1011.4 |
| 20260502044903 | 53 | 0 | 0.0 | 1.0 | 0.00 | 0.00 | 0.00 | 17 | 1011.4 |
| 20260502044804 | 53 | 0 | 0.0 | 1.0 | 0.00 | 0.00 | 0.00 | 17 | 1011.3 |
| 20260502044704 | 53 | 0 | 0.0 | 1.0 | 0.00 | 0.00 | 0.00 | 17 | 1011.3 |
| 20260502044604 | 53 | 0 | 0.0 | 1.0 | 0.00 | 0.00 | 0.00 | 17 | 1011.3 |
| 20260502044504 | 54 | 0 | 0.0 | 1.0 | 0.00 | 0.00 | 0.00 | 17 | 1011.3 |
| 20260502044404 | 54 | 0 | 0.0 | 1.0 | 0.00 | 0.00 | 0.00 | 17 | 1011.3 |
| 20260502044303 | 54 | 0 | 0.0 | 2.0 | 0.00 | 0.00 | 0.00 | 17 | 1011.3 |
| 20260502044204 | 54 | 0 | 0.0 | 2.0 | 0.00 | 0.00 | 0.00 | 17 | 1011.3 |
| 20260502044104 | 54 | 0 | 0.0 | 2.0 | 0.00 | 0.00 | 0.00 | 17 | 1011.3 |
| 20260502043904 | 54 | 0 | 0.0 | 2.0 | 0.00 | 0.00 | 0.00 | 17 | 1011.3 |
| 20260502043803 | 54 | 0 | 0.0 | 2.0 | 0.00 | 0.00 | 0.00 | 17 | 1011.4 |
| 20260502043704 | 55 | 0 | 0.0 | 2.0 | 0.00 | 0.00 | 0.00 | 17 | 1011.2 |
| 20260502043604 | 55 | 0 | 0.0 | 2.0 | 0.00 | 0.00 | 0.00 | 17 | 1011.3 |
| 20260502043503 | 55 | 0 | 0.0 | 2.0 | 0.00 | 0.00 | 0.00 | 18 | 1011.2 |
| 20260502043404 | 55 | 0 | 0.0 | 2.0 | 0.00 | 0.00 | 0.00 | 18 | 1011.3 |
| 20260502043303 | 54 | 228 | 1.0 | 2.0 | 0.00 | 0.00 | 0.00 | 18 | 1011.2 |
| 20260502043204 | 54 | 0 | 0.0 | 1.0 | 0.00 | 0.00 | 0.00 | 18 | 1011.2 |
| 20260502043003 | 54 | 0 | 0.0 | 1.0 | 0.00 | 0.00 | 0.00 | 18 | 1011.2 |
| 20260502042804 | 54 | 0 | 0.0 | 1.0 | 0.00 | 0.00 | 0.00 | 18 | 1011.2 |
| 20260502042603 | 54 | 0 | 0.0 | 0.0 | 0.00 | 0.00 | 0.00 | 18 | 1011.1 |
| 20260502042504 | 54 | 0 | 0.0 | 0.0 | 0.00 | 0.00 | 0.00 | 18 | 1011.2 |
| 20260502042404 | 54 | 0 | 0.0 | 0.0 | 0.00 | 0.00 | 0.00 | 17 | 1011.2 |
| 20260502042306 | 54 | 0 | 0.0 | 0.0 | 0.00 | 0.00 | 0.00 | 17 | 1011.2 |
| 20260502042104 | 54 | 0 | 0.0 | 1.0 | 0.00 | 0.00 | 0.00 | 17 | 1011.3 |
| 20260502041904 | 55 | 0 | 0.0 | 1.0 | 0.00 | 0.00 | 0.00 | 17 | 1011.1 |
| 20260502041703 | 55 | 0 | 0.0 | 2.0 | 0.00 | 0.00 | 0.00 | 17 | 1011.2 |
| 20260502041604 | 56 | 0 | 0.0 | 2.0 | 0.00 | 0.00 | 0.00 | 16 | 1011.1 |
| 20260502041504 | 56 | 0 | 0.0 | 2.0 | 0.00 | 0.00 | 0.00 | 16 | 1011.2 |
| 20260502041403 | 56 | 0 | 0.0 | 2.0 | 0.00 | 0.00 | 0.00 | 16 | 1011.1 |
| 20260502041304 | 56 | 0 | 0.0 | 2.0 | 0.00 | 0.00 | 0.00 | 15 | 1011.2 |
| 20260502041104 | 57 | 0 | 0.0 | 2.0 | 0.00 | 0.00 | 0.00 | 14 | 1011.1 |
| 20260502040903 | 57 | 0 | 0.0 | 2.0 | 0.00 | 0.00 | 0.00 | 15 | 1011.1 |
| 20260502040804 | 57 | 231 | 1.0 | 2.0 | 0.00 | 0.00 | 0.00 | 15 | 1011.2 |
| 20260502040704 | 57 | 233 | 1.0 | 2.0 | 0.00 | 0.00 | 0.00 | 15 | 1011.1 |
| 20260502040604 | 57 | 233 | 1.0 | 2.0 | 0.00 | 0.00 | 0.00 | 15 | 1011.1 |
| 20260502040504 | 57 | 233 | 1.0 | 2.0 | 0.00 | 0.00 | 0.00 | 15 | 1011.1 |
| 20260502040204 | 57 | 233 | 1.0 | 2.0 | 0.00 | 0.00 | 0.00 | 15 | 1011.0 |
| 20260502040104 | 57 | 235 | 1.0 | 2.0 | 0.00 | 0.00 | 0.00 | 15 | 1010.9 |
| 20260502035904 | 57 | 239 | 2.0 | 3.0 | 0.00 | 0.00 | 0.00 | 15 | 1010.9 |
| 20260502035804 | 57 | 233 | 2.0 | 3.0 | 0.00 | 0.00 | 0.00 | 15 | 1010.9 |
| 20260502035604 | 57 | 234 | 1.0 | 3.0 | 0.00 | 0.00 | 0.00 | 15 | 1010.8 |
| 20260502035503 | 57 | 233 | 1.0 | 3.0 | 0.00 | 0.00 | 0.00 | 15 | 1011.0 |
| 20260502035404 | 57 | 239 | 2.0 | 3.0 | 0.00 | 0.00 | 0.00 | 15 | 1010.9 |
| 20260502035203 | 58 | 0 | 0.0 | 4.0 | 0.00 | 0.00 | 0.00 | 14 | 1010.9 |
| 20260502035004 | 58 | 232 | 2.0 | 4.0 | 0.00 | 0.00 | 0.00 | 14 | 1010.9 |
| 20260502034904 | 58 | 227 | 2.0 | 4.0 | 0.00 | 0.00 | 0.00 | 14 | 1010.9 |
| 20260502034804 | 58 | 0 | 0.0 | 4.0 | 0.00 | 0.00 | 0.00 | 14 | 1010.8 |
| 20260502034703 | 58 | 0 | 0.0 | 4.0 | 0.00 | 0.00 | 0.00 | 14 | 1010.9 |
| 20260502034604 | 58 | 0 | 0.0 | 4.0 | 0.00 | 0.00 | 0.00 | 14 | 1010.7 |
| 20260502034504 | 58 | 0 | 0.0 | 4.0 | 0.00 | 0.00 | 0.00 | 14 | 1010.7 |
| 20260502034004 | 59 | 0 | 0.0 | 3.0 | 0.00 | 0.00 | 0.00 | 12 | 1010.7 |
| 20260502033905 | 59 | 0 | 0.0 | 3.0 | 0.00 | 0.00 | 0.00 | 11 | 1010.7 |
| 20260502033803 | 59 | 227 | 1.0 | 3.0 | 0.00 | 0.00 | 0.00 | 11 | 1010.7 |
| 20260502033704 | 60 | 227 | 1.0 | 3.0 | 0.00 | 0.00 | 0.00 | 11 | 1010.6 |
| 20260502033604 | 60 | 227 | 2.0 | 3.0 | 0.00 | 0.00 | 0.00 | 11 | 1010.6 |
| 20260502033504 | 60 | 227 | 2.0 | 2.0 | 0.00 | 0.00 | 0.00 | 11 | 1010.5 |
| 20260502033404 | 60 | 227 | 2.0 | 2.0 | 0.00 | 0.00 | 0.00 | 11 | 1010.5 |
| 20260502033303 | 60 | 223 | 1.0 | 2.0 | 0.00 | 0.00 | 0.00 | 10 | 1010.5 |
| 20260502033103 | 60 | 210 | 1.0 | 2.0 | 0.00 | 0.00 | 0.00 | 10 | 1010.5 |
| 20260502033004 | 60 | 201 | 1.0 | 2.0 | 0.00 | 0.00 | 0.00 | 10 | 1010.5 |
| 20260502032903 | 60 | 195 | 1.0 | 2.0 | 0.00 | 0.00 | 0.00 | 10 | 1010.7 |
| 20260502032804 | 60 | 192 | 1.0 | 2.0 | 0.00 | 0.00 | 0.00 | 10 | 1010.5 |
| 20260502032504 | 60 | 140 | 1.0 | 2.0 | 0.00 | 0.00 | 0.00 | 10 | 1010.5 |
| 20260502032403 | 61 | 0 | 0.0 | 2.0 | 0.00 | 0.00 | 0.00 | 10 | 1010.4 |
| 20260502032003 | 61 | 0 | 0.0 | 2.0 | 0.00 | 0.00 | 0.00 | 10 | 1010.4 |
| 20260502031904 | 61 | 0 | 0.0 | 2.0 | 0.00 | 0.00 | 0.00 | 10 | 1010.3 |
| 20260502031703 | 61 | 0 | 0.0 | 2.0 | 0.00 | 0.00 | 0.00 | 10 | 1010.3 |
| 20260502031304 | 61 | 0 | 0.0 | 2.0 | 0.00 | 0.00 | 0.00 | 10 | 1010.2 |
| 20260502031204 | 61 | 0 | 0.0 | 2.0 | 0.00 | 0.00 | 0.00 | 10 | 1010.2 |
| 20260502031103 | 61 | 0 | 0.0 | 2.0 | 0.00 | 0.00 | 0.00 | 10 | 1010.2 |
| 20260502031004 | 61 | 0 | 0.0 | 2.0 | 0.00 | 0.00 | 0.00 | 10 | 1010.3 |
| 20260502030708 | 63 | 0 | 0.0 | 2.0 | 0.00 | 0.00 | 0.00 | 10 | 1010.2 |
| 20260502030604 | 63 | 0 | 0.0 | 2.0 | 0.00 | 0.00 | 0.00 | 10 | 1010.1 |
| 20260502030504 | 63 | 0 | 0.0 | 2.0 | 0.00 | 0.00 | 0.00 | 10 | 1010.1 |
| 20260502030404 | 63 | 0 | 0.0 | 2.0 | 0.00 | 0.00 | 0.00 | 10 | 1010.1 |
| 20260502030204 | 63 | 0 | 0.0 | 2.0 | 0.00 | 0.00 | 0.00 | 10 | 1010.2 |
| 20260502030104 | 63 | 0 | 0.0 | 2.0 | 0.00 | 0.00 | 0.00 | 10 | 1010.2 |
| 20260502025904 | 63 | 62 | 1.0 | 2.0 | 0.00 | 0.00 | 0.00 | 10 | 1010.1 |
| 20260502025803 | 63 | 0 | 0.0 | 2.0 | 0.00 | 0.00 | 0.00 | 10 | 1010.0 |
| 20260502025704 | 64 | 0 | 0.0 | 2.0 | 0.00 | 0.00 | 0.00 | 10 | 1010.0 |
| 20260502025603 | 64 | 0 | 0.0 | 2.0 | 0.00 | 0.00 | 0.00 | 10 | 1010.0 |
| 20260502025404 | 64 | 0 | 0.0 | 2.0 | 0.00 | 0.00 | 0.00 | 10 | 1010.0 |
| 20260502025306 | 64 | 0 | 0.0 | 2.0 | 0.00 | 0.00 | 0.00 | 10 | 1010.1 |
| 20260502025204 | 64 | 0 | 0.0 | 2.0 | 0.00 | 0.00 | 0.00 | 10 | 1010.1 |
| 20260502025103 | 65 | 0 | 0.0 | 2.0 | 0.00 | 0.00 | 0.00 | 10 | 1010.1 |
| 20260502025004 | 65 | 0 | 0.0 | 2.0 | 0.00 | 0.00 | 0.00 | 10 | 1010.0 |
| 20260502024903 | 65 | 0 | 0.0 | 2.0 | 0.00 | 0.00 | 0.00 | 10 | 1010.0 |
| 20260502024804 | 65 | 0 | 0.0 | 2.0 | 0.00 | 0.00 | 0.00 | 10 | 1010.1 |
| 20260502024704 | 65 | 0 | 0.0 | 2.0 | 0.00 | 0.00 | 0.00 | 10 | 1010.0 |
| 20260502024603 | 65 | 0 | 0.0 | 2.0 | 0.00 | 0.00 | 0.00 | 10 | 1010.0 |
| 20260502024504 | 66 | 0 | 0.0 | 2.0 | 0.00 | 0.00 | 0.00 | 10 | 1009.9 |
| 20260502024404 | 66 | 0 | 0.0 | 2.0 | 0.00 | 0.00 | 0.00 | 10 | 1010.0 |
| 20260502024204 | 66 | 0 | 0.0 | 2.0 | 0.00 | 0.00 | 0.00 | 10 | 1010.0 |
| 20260502024103 | 66 | 51 | 1.0 | 2.0 | 0.00 | 0.00 | 0.00 | 10 | 1010.0 |
| 20260502024004 | 67 | 0 | 0.0 | 2.0 | 0.00 | 0.00 | 0.00 | 10 | 1010.0 |
| 20260502023903 | 67 | 0 | 0.0 | 4.0 | 0.00 | 0.00 | 0.00 | 10 | 1009.9 |
| 20260502023804 | 67 | 0 | 0.0 | 4.0 | 0.00 | 0.00 | 0.00 | 10 | 1010.0 |
| 20260502023703 | 67 | 59 | 1.0 | 4.0 | 0.00 | 0.00 | 0.00 | 10 | 1010.0 |
| 20260502023604 | 67 | 60 | 1.0 | 4.0 | 0.00 | 0.00 | 0.00 | 10 | 1010.1 |
| 20260502023404 | 67 | 60 | 1.0 | 4.0 | 0.00 | 0.00 | 0.00 | 10 | 1010.1 |
| 20260502023203 | 68 | 60 | 1.0 | 4.0 | 0.00 | 0.00 | 0.00 | 10 | 1010.1 |
| 20260502023104 | 68 | 58 | 1.0 | 4.0 | 0.00 | 0.00 | 0.00 | 10 | 1010.0 |
| 20260502023003 | 68 | 58 | 2.0 | 4.0 | 0.00 | 0.00 | 0.00 | 10 | 1010.0 |
| 20260502022904 | 68 | 63 | 2.0 | 3.0 | 0.00 | 0.00 | 0.00 | 10 | 1010.0 |
| 20260502022604 | 68 | 0 | 0.0 | 4.0 | 0.00 | 0.00 | 0.00 | 10 | 1010.0 |
| 20260502022503 | 69 | 0 | 0.0 | 5.0 | 0.00 | 0.00 | 0.00 | 10 | 1010.2 |
| 20260502022404 | 69 | 80 | 1.0 | 5.0 | 0.00 | 0.00 | 0.00 | 10 | 1010.0 |
| 20260502022306 | 69 | 77 | 1.0 | 5.0 | 0.00 | 0.00 | 0.00 | 10 | 1010.1 |
| 20260502022204 | 69 | 75 | 1.0 | 5.0 | 0.00 | 0.00 | 0.00 | 10 | 1010.0 |
| 20260502022103 | 69 | 68 | 2.0 | 6.0 | 0.00 | 0.00 | 0.00 | 10 | 1010.0 |
| 20260502021804 | 69 | 74 | 2.0 | 6.0 | 0.00 | 0.00 | 0.00 | 10 | 1010.0 |
| 20260502021703 | 69 | 76 | 2.0 | 7.0 | 0.00 | 0.00 | 0.00 | 10 | 1010.1 |
| 20260502021604 | 69 | 77 | 2.0 | 7.0 | 0.00 | 0.00 | 0.00 | 10 | 1010.0 |
| 20260502021504 | 69 | 78 | 3.0 | 7.0 | 0.00 | 0.00 | 0.00 | 10 | 1010.0 |
| 20260502021403 | 69 | 78 | 3.0 | 7.0 | 0.00 | 0.00 | 0.00 | 10 | 1010.0 |
| 20260502021304 | 69 | 81 | 3.0 | 7.0 | 0.00 | 0.00 | 0.00 | 10 | 1010.0 |
| 20260502021203 | 69 | 85 | 4.0 | 7.0 | 0.00 | 0.00 | 0.00 | 10 | 1010.0 |
| 20260502021104 | 70 | 90 | 4.0 | 7.0 | 0.00 | 0.00 | 0.00 | 10 | 1010.0 |
| 20260502021003 | 70 | 90 | 2.0 | 7.0 | 0.00 | 0.00 | 0.00 | 10 | 1009.9 |
| 20260502020904 | 70 | 90 | 2.0 | 7.0 | 0.00 | 0.00 | 0.00 | 10 | 1009.9 |
| 20260502020804 | 70 | 90 | 3.0 | 7.0 | 0.00 | 0.00 | 0.00 | 10 | 1009.9 |
| 20260502020704 | 70 | 87 | 4.0 | 7.0 | 0.00 | 0.00 | 0.00 | 10 | 1009.9 |
| 20260502020503 | 70 | 81 | 4.0 | 7.0 | 0.00 | 0.00 | 0.00 | 10 | 1009.9 |
| 20260502020404 | 70 | 77 | 4.0 | 7.0 | 0.00 | 0.00 | 0.00 | 10 | 1009.9 |
| 20260502020303 | 70 | 74 | 4.0 | 8.0 | 0.00 | 0.00 | 0.00 | 10 | 1009.9 |
| 20260502020204 | 70 | 67 | 4.0 | 8.0 | 0.00 | 0.00 | 0.00 | 10 | 1009.9 |
| 20260502020103 | 70 | 58 | 4.0 | 9.0 | 0.00 | 0.00 | 0.00 | 10 | 1009.9 |
| 20260502020004 | 70 | 56 | 4.0 | 9.0 | 0.00 | 0.00 | 0.00 | 10 | 1009.8 |
| 20260502015903 | 70 | 58 | 3.0 | 9.0 | 0.00 | 0.00 | 0.00 | 10 | 1009.9 |
| 20260502015804 | 70 | 55 | 2.0 | 9.0 | 0.00 | 0.00 | 0.00 | 10 | 1010.0 |
| 20260502015703 | 70 | 60 | 2.0 | 9.0 | 0.00 | 0.00 | 0.00 | 10 | 1009.9 |
| 20260502015604 | 70 | 62 | 3.0 | 9.0 | 0.00 | 0.00 | 0.00 | 10 | 1009.8 |
| 20260502015503 | 70 | 63 | 3.0 | 9.0 | 0.00 | 0.00 | 0.00 | 10 | 1010.0 |
| 20260502015305 | 71 | 69 | 5.0 | 9.0 | 0.00 | 0.00 | 0.00 | 10 | 1009.8 |
| 20260502015203 | 71 | 73 | 6.0 | 9.0 | 0.00 | 0.00 | 0.00 | 10 | 1009.9 |
| 20260502015003 | 71 | 78 | 4.0 | 8.0 | 0.00 | 0.00 | 0.00 | 10 | 1010.0 |
| 20260502014704 | 71 | 83 | 4.0 | 9.0 | 0.00 | 0.00 | 0.00 | 10 | 1010.0 |
| 20260502014604 | 71 | 85 | 3.0 | 9.0 | 0.00 | 0.00 | 0.00 | 10 | 1010.0 |
| 20260502014504 | 71 | 87 | 3.0 | 9.0 | 0.00 | 0.00 | 0.00 | 10 | 1010.0 |
| 20260502014303 | 71 | 88 | 4.0 | 9.0 | 0.00 | 0.00 | 0.00 | 10 | 1010.1 |
| 20260502014204 | 71 | 87 | 4.0 | 9.0 | 0.00 | 0.00 | 0.00 | 10 | 1010.0 |
| 20260502014104 | 71 | 84 | 4.0 | 9.0 | 0.00 | 0.00 | 0.00 | 10 | 1010.1 |
| 20260502014004 | 71 | 84 | 4.0 | 11.0 | 0.00 | 0.00 | 0.00 | 10 | 1010.1 |
| 20260502013904 | 72 | 79 | 6.0 | 11.0 | 0.00 | 0.00 | 0.00 | 10 | 1010.1 |
| 20260502013804 | 72 | 79 | 6.0 | 11.0 | 0.00 | 0.00 | 0.00 | 10 | 1010.1 |
| 20260502013703 | 72 | 74 | 6.0 | 11.0 | 0.00 | 0.00 | 0.00 | 10 | 1010.1 |
| 20260502013604 | 72 | 72 | 6.0 | 11.0 | 0.00 | 0.00 | 0.00 | 10 | 1010.0 |
| 20260502013504 | 72 | 72 | 6.0 | 11.0 | 0.00 | 0.00 | 0.00 | 10 | 1010.1 |
| 20260502013404 | 72 | 72 | 6.0 | 11.0 | 0.00 | 0.00 | 0.00 | 10 | 1010.0 |
| 20260502013303 | 72 | 73 | 6.0 | 11.0 | 0.00 | 0.00 | 0.00 | 10 | 1010.1 |
| 20260502013204 | 72 | 73 | 6.0 | 11.0 | 0.00 | 0.00 | 0.00 | 10 | 1010.0 |
| 20260502013104 | 72 | 74 | 6.0 | 11.0 | 0.00 | 0.00 | 0.00 | 10 | 1010.0 |
| 20260502012803 | 72 | 78 | 6.0 | 11.0 | 0.00 | 0.00 | 0.00 | 10 | 1010.0 |
| 20260502012704 | 72 | 82 | 6.0 | 11.0 | 0.00 | 0.00 | 0.00 | 10 | 1010.1 |
| 20260502012603 | 72 | 84 | 5.0 | 11.0 | 0.00 | 0.00 | 0.00 | 10 | 1010.0 |
| 20260502012504 | 72 | 84 | 8.0 | 11.0 | 0.00 | 0.00 | 0.00 | 10 | 1010.1 |
| 20260502012404 | 72 | 86 | 6.0 | 11.0 | 0.00 | 0.00 | 0.00 | 10 | 1010.1 |
| 20260502012103 | 72 | 87 | 6.0 | 10.0 | 0.00 | 0.00 | 0.00 | 10 | 1010.0 |
| 20260502012004 | 72 | 90 | 7.0 | 10.0 | 0.00 | 0.00 | 0.00 | 10 | 1010.0 |
| 20260502011904 | 73 | 88 | 8.0 | 10.0 | 0.00 | 0.00 | 0.00 | 10 | 1010.1 |
| 20260502011803 | 73 | 90 | 6.0 | 10.0 | 0.00 | 0.00 | 0.00 | 10 | 1009.9 |
| 20260502011603 | 73 | 82 | 3.0 | 9.0 | 0.00 | 0.00 | 0.00 | 10 | 1010.1 |
| 20260502011504 | 73 | 81 | 3.0 | 10.0 | 0.00 | 0.00 | 0.00 | 10 | 1010.0 |
| 20260502011403 | 73 | 78 | 4.0 | 10.0 | 0.00 | 0.00 | 0.00 | 10 | 1010.0 |
| 20260502011304 | 73 | 74 | 4.0 | 11.0 | 0.00 | 0.00 | 0.00 | 10 | 1009.9 |
| 20260502011204 | 73 | 76 | 6.0 | 11.0 | 0.00 | 0.00 | 0.00 | 10 | 1010.0 |
| 20260502011104 | 73 | 76 | 7.0 | 11.0 | 0.00 | 0.00 | 0.00 | 10 | 1010.1 |
| 20260502010903 | 74 | 77 | 4.0 | 15.0 | 0.00 | 0.00 | 0.00 | 10 | 1010.1 |
| 20260502010804 | 74 | 79 | 4.0 | 15.0 | 0.00 | 0.00 | 0.00 | 10 | 1010.1 |
| 20260502010703 | 74 | 84 | 3.0 | 16.0 | 0.00 | 0.00 | 0.00 | 10 | 1010.1 |
| 20260502010604 | 74 | 86 | 4.0 | 16.0 | 0.00 | 0.00 | 0.00 | 10 | 1010.0 |
| 20260502010503 | 74 | 84 | 5.0 | 16.0 | 0.00 | 0.00 | 0.00 | 10 | 1010.2 |
| 20260502010403 | 74 | 84 | 6.0 | 16.0 | 0.00 | 0.00 | 0.00 | 10 | 1010.2 |
| 20260502010203 | 74 | 87 | 7.0 | 16.0 | 0.00 | 0.00 | 0.00 | 10 | 1010.1 |
| 20260502010104 | 74 | 84 | 8.0 | 16.0 | 0.00 | 0.00 | 0.00 | 10 | 1010.1 |
| 20260502010004 | 74 | 85 | 9.0 | 16.0 | 0.00 | 0.00 | 0.00 | 10 | 1010.0 |
| 20260502005904 | 74 | 84 | 11.0 | 16.0 | 0.00 | 0.00 | 0.00 | 10 | 1010.0 |
| 20260502005804 | 74 | 78 | 7.0 | 16.0 | 0.00 | 0.00 | 0.00 | 10 | 1010.0 |
| 20260502005703 | 74 | 73 | 8.0 | 13.0 | 0.00 | 0.00 | 0.00 | 10 | 1010.0 |
| 20260502005504 | 75 | 72 | 7.0 | 13.0 | 0.00 | 0.00 | 0.00 | 10 | 1010.0 |
| 20260502005403 | 75 | 72 | 9.0 | 13.0 | 0.00 | 0.00 | 0.00 | 10 | 1009.9 |
| 20260502005306 | 75 | 66 | 8.0 | 12.0 | 0.00 | 0.00 | 0.00 | 10 | 1010.0 |
| 20260502005204 | 75 | 63 | 7.0 | 12.0 | 0.00 | 0.00 | 0.00 | 10 | 1010.1 |
| 20260502005105 | 75 | 67 | 8.0 | 12.0 | 0.00 | 0.00 | 0.00 | 10 | 1010.0 |
| 20260502005005 | 75 | 64 | 6.0 | 12.0 | 0.00 | 0.00 | 0.00 | 10 | 1010.0 |
| 20260502004605 | 76 | 47 | 4.0 | 11.0 | 0.00 | 0.00 | 0.00 | 10 | 1010.0 |
| 20260502004405 | 76 | 9 | 7.0 | 11.0 | 0.00 | 0.00 | 0.00 | 10 | 1010.1 |
| 20260502004304 | 76 | 355 | 4.0 | 8.0 | 0.00 | 0.00 | 0.00 | 10 | 1010.0 |
| 20260502004205 | 76 | 351 | 5.0 | 8.0 | 0.00 | 0.00 | 0.00 | 10 | 1010.1 |
| 20260502004105 | 77 | 336 | 4.0 | 8.0 | 0.00 | 0.00 | 0.00 | 10 | 1010.0 |
| 20260502004006 | 77 | 327 | 4.0 | 8.0 | 0.00 | 0.00 | 0.00 | 10 | 1010.1 |
| 20260502003905 | 77 | 319 | 2.0 | 8.0 | 0.00 | 0.00 | 0.00 | 10 | 1010.1 |
| 20260502003705 | 78 | 318 | 4.0 | 8.0 | 0.00 | 0.00 | 0.00 | 10 | 1010.1 |
| 20260502003604 | 78 | 318 | 4.0 | 8.0 | 0.00 | 0.00 | 0.00 | 10 | 1010.2 |
| 20260502003506 | 78 | 314 | 4.0 | 8.0 | 0.00 | 0.00 | 0.00 | 10 | 1010.1 |
| 20260502003405 | 78 | 310 | 4.0 | 8.0 | 0.00 | 0.00 | 0.00 | 10 | 1010.0 |
| 20260502003305 | 78 | 306 | 4.0 | 8.0 | 0.00 | 0.00 | 0.00 | 10 | 1010.0 |
| 20260502003205 | 78 | 311 | 4.0 | 7.0 | 0.00 | 0.00 | 0.00 | 10 | 1010.0 |
| 20260502003104 | 78 | 313 | 2.0 | 7.0 | 0.00 | 0.00 | 0.00 | 10 | 1010.1 |
| 20260502003005 | 78 | 314 | 1.0 | 7.0 | 0.00 | 0.00 | 0.00 | 10 | 1010.1 |
| 20260502002704 | 77 | 313 | 3.0 | 7.0 | 0.00 | 0.00 | 0.00 | 10 | 1010.2 |
| 20260502002605 | 77 | 315 | 2.0 | 6.0 | 0.00 | 0.00 | 0.00 | 10 | 1010.1 |
| 20260502002505 | 77 | 329 | 4.0 | 6.0 | 0.00 | 0.00 | 0.00 | 10 | 1010.1 |
| 20260502002204 | 77 | 48 | 3.0 | 6.0 | 0.00 | 0.00 | 0.00 | 10 | 1010.2 |
| 20260502001805 | 77 | 108 | 1.0 | 3.0 | 0.00 | 0.00 | 0.00 | 10 | 1010.2 |
| 20260502001705 | 77 | 113 | 1.0 | 3.0 | 0.00 | 0.00 | 0.00 | 10 | 1010.2 |
| 20260502001604 | 77 | 117 | 1.0 | 3.0 | 0.00 | 0.00 | 0.00 | 10 | 1010.2 |
| 20260502001505 | 77 | 126 | 1.0 | 3.0 | 0.00 | 0.00 | 0.00 | 10 | 1010.2 |
| 20260502001305 | 77 | 130 | 1.0 | 4.0 | 0.00 | 0.00 | 0.00 | 10 | 1010.2 |
| 20260502001205 | 77 | 131 | 2.0 | 4.0 | 0.00 | 0.00 | 0.00 | 10 | 1010.1 |
| 20260502001105 | 77 | 123 | 1.0 | 4.0 | 0.00 | 0.00 | 0.00 | 10 | 1010.1 |
| 20260502001004 | 77 | 122 | 1.0 | 4.0 | 0.00 | 0.00 | 0.00 | 10 | 1010.1 |
| 20260502000905 | 77 | 117 | 1.0 | 6.0 | 0.00 | 0.00 | 0.00 | 10 | 1010.2 |
| 20260502000705 | 77 | 0 | 0.0 | 6.0 | 0.00 | 0.00 | 0.00 | 10 | 1010.2 |
| 20260502000604 | 77 | 97 | 1.0 | 6.0 | 0.00 | 0.00 | 0.00 | 10 | 1010.2 |
| 20260502000505 | 77 | 98 | 1.0 | 6.0 | 0.00 | 0.00 | 0.00 | 10 | 1010.3 |
| 20260502000405 | 77 | 104 | 2.0 | 6.0 | 0.00 | 0.00 | 0.00 | 10 | 1010.3 |
| 20260502000305 | 76 | 105 | 2.0 | 6.0 | 0.00 | 0.00 | 0.00 | 10 | 1010.1 |
| 20260502000005 | 76 | 116 | 2.0 | 6.0 | 0.00 | 0.00 | 0.00 | 10 | 1010.2 |
| 20260501235904 | 76 | 119 | 2.0 | 8.0 | 0.00 | 0.00 | 0.00 | 10 | 1010.3 |
| 20260501235805 | 76 | 122 | 2.0 | 8.0 | 0.00 | 0.00 | 0.00 | 10 | 1010.3 |
| 20260501235705 | 76 | 122 | 2.0 | 8.0 | 0.00 | 0.00 | 0.00 | 10 | 1010.3 |
| 20260501235605 | 76 | 123 | 1.0 | 8.0 | 0.00 | 0.00 | 0.00 | 10 | 1010.3 |
| 20260501235505 | 76 | 121 | 3.0 | 8.0 | 0.00 | 0.00 | 0.00 | 10 | 1010.4 |
| 20260501235305 | 76 | 113 | 1.0 | 8.0 | 0.00 | 0.00 | 0.00 | 10 | 1010.4 |
| 20260501235205 | 76 | 118 | 3.0 | 8.0 | 0.00 | 0.00 | 0.00 | 10 | 1010.4 |
| 20260501234905 | 76 | 116 | 4.0 | 8.0 | 0.00 | 0.00 | 0.00 | 10 | 1010.4 |
| 20260501234804 | 76 | 121 | 2.0 | 8.0 | 0.00 | 0.00 | 0.00 | 10 | 1010.4 |
| 20260501234604 | 76 | 0 | 0.0 | 8.0 | 0.00 | 0.00 | 0.00 | 10 | 1010.4 |
| 20260501234404 | 76 | 0 | 0.0 | 8.0 | 0.00 | 0.00 | 0.00 | 10 | 1010.5 |
| 20260501234305 | 76 | 356 | 1.0 | 10.0 | 0.00 | 0.00 | 0.00 | 10 | 1010.5 |
| 20260501234205 | 76 | 1 | 6.0 | 10.0 | 0.00 | 0.00 | 0.00 | 10 | 1010.6 |
| 20260501234104 | 76 | 355 | 3.0 | 11.0 | 0.00 | 0.00 | 0.00 | 10 | 1010.5 |
| 20260501234005 | 76 | 359 | 2.0 | 11.0 | 0.00 | 0.00 | 0.00 | 10 | 1010.5 |
| 20260501233905 | 76 | 3 | 3.0 | 11.0 | 0.00 | 0.00 | 0.00 | 10 | 1010.6 |
| 20260501233805 | 77 | 7 | 2.0 | 11.0 | 0.00 | 0.00 | 0.00 | 10 | 1010.5 |
| 20260501233705 | 77 | 9 | 4.0 | 11.0 | 0.00 | 0.00 | 0.00 | 10 | 1010.5 |
| 20260501233605 | 77 | 13 | 4.0 | 11.0 | 0.00 | 0.00 | 0.00 | 10 | 1010.6 |
| 20260501233404 | 77 | 22 | 4.0 | 11.0 | 0.00 | 0.00 | 0.00 | 10 | 1010.5 |
| 20260501233305 | 77 | 19 | 8.0 | 11.0 | 0.00 | 0.00 | 0.00 | 10 | 1010.6 |
| 20260501233204 | 77 | 13 | 6.0 | 11.0 | 0.00 | 0.00 | 0.00 | 10 | 1010.7 |
| 20260501233105 | 77 | 15 | 6.0 | 11.0 | 0.00 | 0.00 | 0.00 | 10 | 1010.5 |
| 20260501233005 | 77 | 11 | 5.0 | 8.0 | 0.00 | 0.00 | 0.00 | 10 | 1010.6 |
| 20260501232905 | 77 | 13 | 5.0 | 9.0 | 0.00 | 0.00 | 0.00 | 10 | 1010.6 |
| 20260501232804 | 77 | 15 | 4.0 | 9.0 | 0.00 | 0.00 | 0.00 | 10 | 1010.7 |
| 20260501232705 | 77 | 8 | 4.0 | 9.0 | 0.00 | 0.00 | 0.00 | 10 | 1010.7 |
| 20260501232604 | 77 | 1 | 4.0 | 9.0 | 0.00 | 0.00 | 0.00 | 10 | 1010.6 |
| 20260501232504 | 77 | 356 | 3.0 | 9.0 | 0.00 | 0.00 | 0.00 | 10 | 1010.8 |
| 20260501232405 | 77 | 0 | 0.0 | 9.0 | 0.00 | 0.00 | 0.00 | 10 | 1010.7 |
| 20260501232306 | 77 | 359 | 1.0 | 9.0 | 0.00 | 0.00 | 0.00 | 10 | 1010.6 |
| 20260501232205 | 77 | 8 | 3.0 | 9.0 | 0.00 | 0.00 | 0.00 | 10 | 1010.7 |
| 20260501232105 | 77 | 7 | 2.0 | 9.0 | 0.00 | 0.00 | 0.00 | 10 | 1010.7 |
| 20260501231905 | 77 | 326 | 6.0 | 9.0 | 0.00 | 0.00 | 0.00 | 10 | 1010.8 |
| 20260501231804 | 77 | 279 | 4.0 | 8.0 | 0.00 | 0.00 | 0.00 | 10 | 1010.8 |
| 20260501231705 | 77 | 243 | 4.0 | 8.0 | 0.00 | 0.00 | 0.00 | 10 | 1010.8 |
| 20260501231604 | 77 | 263 | 2.0 | 7.0 | 0.00 | 0.00 | 0.00 | 10 | 1010.9 |
| 20260501231505 | 76 | 288 | 1.0 | 7.0 | 0.00 | 0.00 | 0.00 | 10 | 1010.8 |
| 20260501231305 | 76 | 314 | 2.0 | 7.0 | 0.00 | 0.00 | 0.00 | 10 | 1010.9 |
| 20260501231205 | 76 | 0 | 0.0 | 7.0 | 0.00 | 0.00 | 0.00 | 10 | 1010.9 |
| 20260501231105 | 76 | 292 | 2.0 | 7.0 | 0.00 | 0.00 | 0.00 | 10 | 1010.9 |
| 20260501231005 | 76 | 303 | 2.0 | 7.0 | 0.00 | 0.00 | 0.00 | 10 | 1010.9 |
| 20260501230905 | 76 | 329 | 2.0 | 7.0 | 0.00 | 0.00 | 0.00 | 10 | 1010.9 |
| 20260501230805 | 77 | 340 | 2.0 | 7.0 | 0.00 | 0.00 | 0.00 | 10 | 1011.0 |
| 20260501230605 | 76 | 337 | 4.0 | 7.0 | 0.00 | 0.00 | 0.00 | 10 | 1011.0 |
| 20260501230504 | 76 | 2 | 1.0 | 5.0 | 0.00 | 0.00 | 0.00 | 10 | 1011.0 |
| 20260501230405 | 76 | 15 | 2.0 | 5.0 | 0.00 | 0.00 | 0.00 | 10 | 1011.1 |
| 20260501230305 | 76 | 0 | 0.0 | 7.0 | 0.00 | 0.00 | 0.00 | 10 | 1010.9 |
| 20260501230205 | 76 | 0 | 0.0 | 7.0 | 0.00 | 0.00 | 0.00 | 10 | 1011.1 |
| 20260501230104 | 76 | 340 | 1.0 | 7.0 | 0.00 | 0.00 | 0.00 | 10 | 1011.1 |
| 20260501230005 | 76 | 345 | 1.0 | 7.0 | 0.00 | 0.00 | 0.00 | 10 | 1011.1 |
| 20260501225904 | 76 | 0 | 0.0 | 7.0 | 0.00 | 0.00 | 0.00 | 10 | 1011.0 |
| 20260501225805 | 76 | 332 | 1.0 | 7.0 | 0.00 | 0.00 | 0.00 | 10 | 1011.1 |
| 20260501225705 | 76 | 331 | 1.0 | 7.0 | 0.00 | 0.00 | 0.00 | 10 | 1011.1 |
| 20260501225605 | 76 | 333 | 1.0 | 7.0 | 0.00 | 0.00 | 0.00 | 10 | 1011.2 |
| 20260501225306 | 76 | 332 | 4.0 | 10.0 | 0.00 | 0.00 | 0.00 | 10 | 1011.1 |
| 20260501225204 | 76 | 352 | 3.0 | 11.0 | 0.00 | 0.00 | 0.00 | 10 | 1011.1 |
| 20260501225005 | 75 | 20 | 2.0 | 13.0 | 0.00 | 0.00 | 0.00 | 10 | 1011.0 |
| 20260501224705 | 75 | 62 | 2.0 | 13.0 | 0.00 | 0.00 | 0.00 | 10 | 1011.2 |
| 20260501224405 | 75 | 66 | 4.0 | 13.0 | 0.00 | 0.00 | 0.00 | 10 | 1011.3 |
| 20260501224305 | 75 | 75 | 7.0 | 13.0 | 0.00 | 0.00 | 0.00 | 10 | 1011.3 |
| 20260501224204 | 76 | 87 | 8.0 | 13.0 | 0.00 | 0.00 | 0.00 | 10 | 1011.3 |
| 20260501224104 | 76 | 101 | 7.0 | 13.0 | 0.00 | 0.00 | 0.00 | 10 | 1011.3 |
| 20260501224005 | 76 | 103 | 4.0 | 8.0 | 0.00 | 0.00 | 0.00 | 10 | 1011.4 |
| 20260501223805 | 76 | 101 | 4.0 | 8.0 | 0.00 | 0.00 | 0.00 | 10 | 1011.3 |
| 20260501223704 | 76 | 97 | 2.0 | 9.0 | 0.00 | 0.00 | 0.00 | 10 | 1011.3 |
| 20260501223605 | 76 | 100 | 4.0 | 9.0 | 0.00 | 0.00 | 0.00 | 10 | 1011.4 |
| 20260501223504 | 76 | 99 | 3.0 | 9.0 | 0.00 | 0.00 | 0.00 | 10 | 1011.4 |
| 20260501223405 | 76 | 98 | 2.0 | 9.0 | 0.00 | 0.00 | 0.00 | 10 | 1011.5 |
| 20260501223305 | 76 | 99 | 4.0 | 9.0 | 0.00 | 0.00 | 0.00 | 10 | 1011.5 |
| 20260501223204 | 76 | 88 | 4.0 | 9.0 | 0.00 | 0.00 | 0.00 | 10 | 1011.6 |
| 20260501223105 | 76 | 63 | 4.0 | 9.0 | 0.00 | 0.00 | 0.00 | 10 | 1011.5 |
| 20260501223004 | 76 | 39 | 4.0 | 9.0 | 0.00 | 0.00 | 0.00 | 10 | 1011.6 |
| 20260501222705 | 76 | 336 | 2.0 | 10.0 | 0.00 | 0.00 | 0.00 | 10 | 1011.7 |
| 20260501222605 | 76 | 327 | 2.0 | 10.0 | 0.00 | 0.00 | 0.00 | 10 | 1011.7 |
| 20260501222504 | 75 | 324 | 1.0 | 10.0 | 0.00 | 0.00 | 0.00 | 10 | 1011.6 |
| 20260501222405 | 76 | 325 | 1.0 | 10.0 | 0.00 | 0.00 | 0.00 | 10 | 1011.6 |
| 20260501222305 | 75 | 325 | 2.0 | 10.0 | 0.00 | 0.00 | 0.00 | 10 | 1011.7 |
| 20260501222205 | 75 | 329 | 4.0 | 10.0 | 0.00 | 0.00 | 0.00 | 10 | 1011.8 |
| 20260501222104 | 75 | 339 | 5.0 | 10.0 | 0.00 | 0.00 | 0.00 | 10 | 1011.8 |
| 20260501221904 | 75 | 350 | 4.0 | 9.0 | 0.00 | 0.00 | 0.00 | 10 | 1011.7 |
| 20260501221805 | 75 | 350 | 2.0 | 9.0 | 0.00 | 0.00 | 0.00 | 10 | 1011.6 |
| 20260501221704 | 75 | 349 | 2.0 | 9.0 | 0.00 | 0.00 | 0.00 | 10 | 1011.7 |
| 20260501221605 | 75 | 341 | 5.0 | 9.0 | 0.00 | 0.00 | 0.00 | 10 | 1011.8 |
| 20260501221505 | 75 | 335 | 3.0 | 9.0 | 0.00 | 0.00 | 0.00 | 10 | 1011.8 |
| 20260501221405 | 75 | 320 | 5.0 | 9.0 | 0.00 | 0.00 | 0.00 | 10 | 1011.8 |
| 20260501221305 | 75 | 319 | 4.0 | 9.0 | 0.00 | 0.00 | 0.00 | 10 | 1011.8 |
| 20260501221105 | 74 | 296 | 6.0 | 9.0 | 0.00 | 0.00 | 0.00 | 10 | 1011.8 |
| 20260501221005 | 74 | 287 | 4.0 | 9.0 | 0.00 | 0.00 | 0.00 | 10 | 1011.8 |
| 20260501220905 | 74 | 289 | 2.0 | 9.0 | 0.00 | 0.00 | 0.00 | 10 | 1011.8 |
| 20260501220805 | 74 | 300 | 3.0 | 10.0 | 0.00 | 0.00 | 0.00 | 10 | 1011.9 |
| 20260501220705 | 74 | 315 | 4.0 | 10.0 | 0.00 | 0.00 | 0.00 | 10 | 1011.8 |
| 20260501220605 | 74 | 337 | 6.0 | 10.0 | 0.00 | 0.00 | 0.00 | 10 | 1011.8 |
| 20260501220505 | 75 | 355 | 6.0 | 10.0 | 0.00 | 0.00 | 0.00 | 10 | 1011.9 |
| 20260501220104 | 75 | 17 | 2.0 | 10.0 | 0.00 | 0.00 | 0.00 | 10 | 1012.2 |
| 20260501215905 | 75 | 32 | 4.0 | 11.0 | 0.00 | 0.00 | 0.00 | 10 | 1012.2 |
| 20260501215705 | 75 | 47 | 4.0 | 11.0 | 0.00 | 0.00 | 0.00 | 10 | 1012.1 |
| 20260501215604 | 75 | 57 | 5.0 | 11.0 | 0.00 | 0.00 | 0.00 | 10 | 1012.1 |
| 20260501215505 | 75 | 65 | 4.0 | 11.0 | 0.00 | 0.00 | 0.00 | 10 | 1012.1 |
| 20260501215405 | 75 | 69 | 5.0 | 11.0 | 0.00 | 0.00 | 0.00 | 10 | 1012.2 |
| 20260501215305 | 75 | 76 | 7.0 | 11.0 | 0.00 | 0.00 | 0.00 | 10 | 1012.1 |
| 20260501215205 | 75 | 84 | 5.0 | 11.0 | 0.00 | 0.00 | 0.00 | 10 | 1012.2 |
| 20260501215104 | 75 | 83 | 6.0 | 11.0 | 0.00 | 0.00 | 0.00 | 10 | 1012.2 |
| 20260501214905 | 75 | 82 | 8.0 | 11.0 | 0.00 | 0.00 | 0.00 | 10 | 1012.2 |
| 20260501214804 | 74 | 76 | 4.0 | 12.0 | 0.00 | 0.00 | 0.00 | 10 | 1012.2 |
| 20260501214605 | 74 | 59 | 2.0 | 14.0 | 0.00 | 0.00 | 0.00 | 10 | 1012.2 |
| 20260501214505 | 74 | 59 | 2.0 | 14.0 | 0.00 | 0.00 | 0.00 | 10 | 1012.2 |
| 20260501214405 | 74 | 0 | 0.0 | 14.0 | 0.00 | 0.00 | 0.00 | 10 | 1012.3 |
| 20260501214305 | 74 | 61 | 2.0 | 14.0 | 0.00 | 0.00 | 0.00 | 10 | 1012.3 |
| 20260501214205 | 74 | 56 | 3.0 | 14.0 | 0.00 | 0.00 | 0.00 | 10 | 1012.3 |
| 20260501214105 | 74 | 58 | 2.0 | 14.0 | 0.00 | 0.00 | 0.00 | 10 | 1012.3 |
| 20260501213906 | 74 | 61 | 8.0 | 14.0 | 0.00 | 0.00 | 0.00 | 10 | 1012.3 |
| 20260501213804 | 74 | 58 | 9.0 | 14.0 | 0.00 | 0.00 | 0.00 | 10 | 1012.3 |
| 20260501213705 | 74 | 59 | 9.0 | 14.0 | 0.00 | 0.00 | 0.00 | 10 | 1012.3 |
| 20260501213604 | 74 | 62 | 3.0 | 12.0 | 0.00 | 0.00 | 0.00 | 10 | 1012.2 |
| 20260501213505 | 74 | 59 | 4.0 | 12.0 | 0.00 | 0.00 | 0.00 | 10 | 1012.3 |
| 20260501213304 | 74 | 66 | 5.0 | 14.0 | 0.00 | 0.00 | 0.00 | 10 | 1012.4 |
| 20260501213205 | 74 | 74 | 4.0 | 14.0 | 0.00 | 0.00 | 0.00 | 10 | 1012.4 |
| 20260501213104 | 74 | 75 | 4.0 | 14.0 | 0.00 | 0.00 | 0.00 | 10 | 1012.4 |
| 20260501213005 | 74 | 81 | 6.0 | 14.0 | 0.00 | 0.00 | 0.00 | 10 | 1012.3 |
| 20260501212805 | 74 | 72 | 5.0 | 14.0 | 0.00 | 0.00 | 0.00 | 10 | 1012.4 |
| 20260501212705 | 74 | 68 | 4.0 | 14.0 | 0.00 | 0.00 | 0.00 | 10 | 1012.5 |
| 20260501212605 | 74 | 70 | 8.0 | 14.0 | 0.00 | 0.00 | 0.00 | 10 | 1012.4 |
| 20260501212504 | 74 | 77 | 8.0 | 14.0 | 0.00 | 0.00 | 0.00 | 10 | 1012.4 |
| 20260501212306 | 74 | 81 | 8.0 | 14.0 | 0.00 | 0.00 | 0.00 | 10 | 1012.5 |
| 20260501211905 | 75 | 74 | 4.0 | 14.0 | 0.00 | 0.00 | 0.00 | 10 | 1012.5 |
| 20260501211804 | 75 | 86 | 4.0 | 14.0 | 0.00 | 0.00 | 0.00 | 10 | 1012.4 |
| 20260501211705 | 75 | 94 | 4.0 | 14.0 | 0.00 | 0.00 | 0.00 | 10 | 1012.5 |
| 20260501211604 | 75 | 90 | 10.0 | 14.0 | 0.00 | 0.00 | 0.00 | 10 | 1012.4 |
| 20260501211405 | 75 | 82 | 7.0 | 11.0 | 0.00 | 0.00 | 0.00 | 10 | 1012.6 |
| 20260501211304 | 75 | 73 | 4.0 | 8.0 | 0.00 | 0.00 | 0.00 | 10 | 1012.5 |
| 20260501211205 | 75 | 65 | 4.0 | 8.0 | 0.00 | 0.00 | 0.00 | 10 | 1012.6 |
| 20260501211104 | 75 | 60 | 2.0 | 8.0 | 0.00 | 0.00 | 0.00 | 10 | 1012.5 |
| 20260501211005 | 75 | 57 | 4.0 | 8.0 | 0.00 | 0.00 | 0.00 | 10 | 1012.7 |
| 20260501210904 | 74 | 47 | 4.0 | 8.0 | 0.00 | 0.00 | 0.00 | 10 | 1012.7 |
| 20260501210805 | 74 | 37 | 2.0 | 8.0 | 0.00 | 0.00 | 0.00 | 10 | 1012.6 |
| 20260501210705 | 74 | 25 | 4.0 | 8.0 | 0.00 | 0.00 | 0.00 | 10 | 1012.7 |
| 20260501210605 | 74 | 8 | 4.0 | 7.0 | 0.00 | 0.00 | 0.00 | 10 | 1012.6 |
| 20260501210505 | 73 | 339 | 2.0 | 6.0 | 0.00 | 0.00 | 0.00 | 10 | 1012.7 |
| 20260501210405 | 73 | 312 | 2.0 | 6.0 | 0.00 | 0.00 | 0.00 | 10 | 1012.6 |
| 20260501210305 | 73 | 310 | 2.0 | 6.0 | 0.00 | 0.00 | 0.00 | 10 | 1012.6 |
| 20260501210205 | 73 | 314 | 2.0 | 7.0 | 0.00 | 0.00 | 0.00 | 10 | 1012.7 |
| 20260501210004 | 73 | 0 | 0.0 | 11.0 | 0.00 | 0.00 | 0.00 | 10 | 1012.7 |
| 20260501205905 | 73 | 326 | 2.0 | 11.0 | 0.00 | 0.00 | 0.00 | 10 | 1012.7 |
| 20260501205705 | 73 | 346 | 2.0 | 11.0 | 0.00 | 0.00 | 0.00 | 10 | 1012.7 |